N4ASP-13 Weather Reports


time (UTC)temp
C
wind
direction
speed
KPH
gust
KPH
rain 1hr
cm
rain 24hr
cm
rain mn
cm
humidity
%
barometer
mb
20260508060356 10 298 12.9 19.3 0.00 0.18 0.00 75 1014.3
20260508060255 10 311 12.9 19.3 0.00 0.18 0.00 75 1014.4
20260508060156 10 313 12.9 19.3 0.00 0.18 0.00 75 1014.4
20260508060053 10 302 12.9 19.3 0.00 0.18 0.00 75 1014.4
20260508055953 10 300 12.9 19.3 0.00 0.18 0.00 75 1014.4
20260508055852 10 301 12.9 19.3 0.00 0.18 0.00 75 1014.3
20260508055753 10 303 12.9 19.3 0.00 0.18 0.00 75 1014.3
20260508055652 10 299 11.3 19.3 0.00 0.18 0.00 75 1014.3
20260508055553 10 309 11.3 19.3 0.00 0.18 0.00 75 1014.2
20260508055453 10 316 11.3 19.3 0.00 0.18 0.00 75 1014.3
20260508055352 10 303 11.3 17.7 0.00 0.18 0.00 75 1014.3
20260508055253 10 302 9.7 17.7 0.00 0.18 0.00 75 1014.3
20260508055152 10 310 9.7 17.7 0.00 0.18 0.00 75 1014.4
20260508055053 10 293 9.7 17.7 0.00 0.18 0.00 75 1014.3
20260508054954 10 315 9.7 17.7 0.00 0.18 0.00 75 1014.3
20260508054854 10 306 9.7 16.1 0.00 0.18 0.00 75 1014.4
20260508054744 10 313 9.7 16.1 0.00 0.18 0.00 75 1014.5
20260508054645 10 302 9.7 16.1 0.00 0.18 0.00 75 1014.5
20260508054544 10 313 9.7 16.1 0.00 0.18 0.00 75 1014.5
20260508054445 10 309 9.7 14.5 0.00 0.18 0.00 75 1014.4
20260508054245 11 315 11.3 16.1 0.00 0.18 0.00 75 1014.4
20260508054145 11 285 11.3 19.3 0.00 0.18 0.00 75 1014.5
20260508054045 11 292 11.3 19.3 0.00 0.18 0.00 75 1014.3
20260508053951 11 306 11.3 19.3 0.00 0.18 0.00 75 1014.3
20260508053844 11 307 12.9 19.3 0.00 0.18 0.00 75 1014.2
20260508053746 11 306 12.9 20.9 0.00 0.18 0.00 75 1014.2
20260508053642 11 309 12.9 20.9 0.00 0.18 0.00 75 1014.3
20260508053543 11 325 12.9 20.9 0.00 0.18 0.00 75 1014.2
20260508053444 11 307 12.9 20.9 0.00 0.18 0.00 75 1014.2
20260508053343 11 279 12.9 20.9 0.00 0.18 0.00 75 1014.2
20260508053243 11 303 14.5 20.9 0.00 0.18 0.00 75 1014.2
20260508053143 11 305 14.5 20.9 0.00 0.18 0.00 75 1014.2
20260508053038 11 290 14.5 20.9 0.00 0.18 0.00 75 1014.2
20260508052938 11 324 14.5 20.9 0.00 0.18 0.00 74 1014.2
20260508052838 11 304 14.5 25.7 0.00 0.18 0.00 75 1014.2
20260508052736 11 314 14.5 25.7 0.00 0.18 0.00 75 1014.2
20260508052638 11 305 14.5 25.7 0.00 0.18 0.00 75 1014.2
20260508052532 11 292 14.5 25.7 0.00 0.18 0.00 75 1014.2
20260508052432 11 302 16.1 25.7 0.00 0.18 0.00 75 1014.2
20260508052331 11 295 16.1 25.7 0.00 0.18 0.00 75 1014.3
20260508052232 11 294 16.1 25.7 0.00 0.18 0.00 75 1014.2
20260508052131 11 292 16.1 25.7 0.00 0.18 0.00 75 1014.1
20260508052027 11 310 16.1 25.7 0.00 0.20 0.00 75 1014.2
20260508051927 11 300 16.1 25.7 0.00 0.20 0.00 76 1014.1
20260508051826 11 312 14.5 20.9 0.00 0.20 0.00 76 1014.1
20260508051726 11 304 14.5 20.9 0.00 0.20 0.00 76 1014.1
20260508051627 11 328 14.5 20.9 0.00 0.20 0.00 76 1014.1
20260508051526 11 281 14.5 20.9 0.00 0.20 0.00 76 1014.0
20260508051427 11 306 14.5 20.9 0.00 0.20 0.00 76 1014.0
20260508051326 11 312 14.5 20.9 0.00 0.20 0.00 76 1014.0
20260508051225 11 342 14.5 20.9 0.00 0.20 0.00 76 1014.1
20260508051124 10 286 14.5 20.9 0.00 0.20 0.00 76 1014.0
20260508051026 10 297 12.9 20.9 0.00 0.20 0.00 76 1014.0
20260508050925 11 306 12.9 20.9 0.00 0.20 0.00 76 1014.0
20260508050824 11 319 14.5 20.9 0.00 0.20 0.00 76 1014.0
20260508050724 11 319 14.5 20.9 0.00 0.20 0.00 76 1014.0
20260508050624 11 288 14.5 20.9 0.00 0.20 0.00 76 1014.0
20260508050526 11 324 14.5 22.5 0.00 0.20 0.00 76 1014.0
20260508050426 11 296 14.5 22.5 0.00 0.20 0.00 76 1014.0
20260508050325 11 318 14.5 22.5 0.00 0.20 0.00 76 1013.9
20260508050225 11 337 12.9 22.5 0.00 0.20 0.00 76 1014.1
20260508050120 11 325 12.9 22.5 0.00 0.20 0.00 76 1014.0
20260508050021 11 327 12.9 22.5 0.00 0.20 0.00 76 1014.1
20260508045922 11 300 12.9 22.5 0.00 0.20 0.00 76 1014.1
20260508045819 11 325 12.9 22.5 0.00 0.20 0.00 76 1014.1
20260508045718 11 350 12.9 22.5 0.00 0.20 0.00 76 1014.1
20260508045620 11 318 12.9 22.5 0.00 0.20 0.00 76 1014.1
20260508045518 11 292 11.3 17.7 0.00 0.20 0.00 76 1014.1
20260508045418 11 317 11.3 17.7 0.00 0.20 0.00 76 1014.1
20260508045319 11 316 11.3 17.7 0.00 0.20 0.00 76 1014.1
20260508045218 11 306 9.7 17.7 0.00 0.20 0.00 76 1014.1
20260508045120 11 332 9.7 17.7 0.00 0.20 0.00 76 1014.0
20260508045019 11 325 9.7 17.7 0.00 0.20 0.00 76 1014.1
20260508044918 11 332 9.7 17.7 0.00 0.20 0.00 76 1014.0
20260508044818 11 350 9.7 17.7 0.00 0.20 0.00 75 1014.0
20260508044719 11 324 8.0 17.7 0.00 0.20 0.00 75 1014.1
20260508044618 11 313 8.0 17.7 0.00 0.20 0.00 75 1014.1
20260508044519 11 316 8.0 17.7 0.00 0.20 0.00 75 1014.0
20260508044418 11 321 8.0 17.7 0.00 0.20 0.00 75 1014.1
20260508044319 11 355 8.0 17.7 0.00 0.20 0.00 75 1014.0
20260508044215 11 348 9.7 17.7 0.00 0.20 0.00 75 1014.0
20260508044116 11 312 8.0 17.7 0.00 0.20 0.00 75 1014.0
20260508044015 11 315 8.0 17.7 0.00 0.20 0.00 75 1014.1
20260508043915 11 313 8.0 17.7 0.00 0.20 0.00 75 1014.0
20260508043816 11 325 8.0 17.7 0.00 0.20 0.00 75 1014.0
20260508043714 11 315 8.0 17.7 0.00 0.20 0.00 75 1014.0
20260508043616 11 311 8.0 14.5 0.00 0.20 0.00 75 1014.0
20260508043515 11 340 6.4 14.5 0.00 0.20 0.00 75 1014.1
20260508043414 11 313 6.4 12.9 0.00 0.20 0.00 75 1014.1
20260508043315 11 312 6.4 12.9 0.00 0.20 0.00 75 1014.1
20260508043215 11 324 4.8 12.9 0.00 0.20 0.00 75 1014.2
20260508043114 11 318 4.8 9.7 0.00 0.20 0.00 75 1014.2
20260508043015 11 330 4.8 9.7 0.00 0.20 0.00 75 1014.1
20260508042914 11 323 4.8 9.7 0.00 0.20 0.00 74 1014.2
20260508042814 11 331 4.8 9.7 0.00 0.20 0.00 74 1014.1
20260508042716 11 320 4.8 9.7 0.00 0.23 0.00 74 1014.2
20260508042615 11 319 6.4 11.3 0.00 0.23 0.00 74 1014.2
20260508042515 11 314 6.4 11.3 0.00 0.23 0.00 74 1014.2
20260508042414 11 312 6.4 11.3 0.00 0.23 0.00 74 1014.3
20260508042316 11 310 6.4 11.3 0.00 0.23 0.00 74 1014.1
20260508042215 11 323 6.4 11.3 0.00 0.23 0.00 74 1014.1
20260508042114 11 280 6.4 11.3 0.00 0.23 0.00 74 1014.2
20260508042015 11 290 6.4 11.3 0.00 0.23 0.00 75 1014.1
20260508041914 11 288 6.4 11.3 0.00 0.23 0.00 74 1014.1
20260508041816 11 298 6.4 11.3 0.00 0.23 0.00 74 1014.1
20260508041716 11 303 6.4 11.3 0.00 0.23 0.00 75 1014.1
20260508041616 11 309 6.4 11.3 0.00 0.23 0.00 75 1014.1
20260508041514 11 302 6.4 11.3 0.00 0.23 0.00 75 1014.1
20260508041415 11 298 6.4 11.3 0.00 0.23 0.00 75 1014.0
20260508041314 11 292 6.4 11.3 0.00 0.23 0.00 75 1014.1
20260508041215 11 301 6.4 11.3 0.00 0.23 0.00 75 1014.1
20260508041114 11 326 6.4 11.3 0.00 0.23 0.00 75 1014.1
20260508041015 11 318 4.8 11.3 0.00 0.23 0.00 74 1014.2
20260508040912 11 312 4.8 11.3 0.00 0.23 0.00 74 1014.1
20260508040810 11 309 4.8 11.3 0.00 0.23 0.00 74 1014.0
20260508040712 11 281 6.4 12.9 0.00 0.23 0.00 74 1014.0
20260508040610 11 296 6.4 12.9 0.00 0.23 0.00 74 1014.0
20260508040510 11 295 6.4 12.9 0.00 0.23 0.00 74 1014.0
20260508040411 11 315 6.4 12.9 0.00 0.23 0.00 75 1013.9
20260508040310 11 298 6.4 14.5 0.00 0.23 0.00 75 1014.1
20260508040211 11 299 6.4 14.5 0.00 0.23 0.00 75 1013.9
20260508040110 11 300 8.0 14.5 0.00 0.23 0.00 74 1014.0
20260508040010 11 301 8.0 14.5 0.00 0.23 0.00 74 1014.0
20260508035910 11 304 8.0 14.5 0.00 0.23 0.23 74 1014.0
20260508035808 11 302 8.0 14.5 0.00 0.23 0.23 74 1013.9
20260508035710 11 327 8.0 14.5 0.00 0.23 0.23 74 1013.9
20260508035608 11 306 8.0 14.5 0.00 0.23 0.23 74 1013.9
20260508035510 11 298 8.0 14.5 0.00 0.23 0.23 74 1013.9
20260508035409 11 293 8.0 14.5 0.00 0.23 0.23 74 1013.9
20260508035308 11 321 8.0 12.9 0.00 0.23 0.23 74 1013.9
20260508035209 11 318 8.0 12.9 0.00 0.23 0.23 74 1013.9
20260508035108 11 288 6.4 12.9 0.00 0.23 0.23 74 1014.0
20260508035010 11 311 6.4 12.9 0.00 0.23 0.23 74 1013.8
20260508034910 11 304 6.4 12.9 0.00 0.23 0.23 74 1013.9
20260508034808 11 277 6.4 11.3 0.00 0.23 0.23 74 1013.8
20260508034710 11 295 4.8 11.3 0.00 0.23 0.23 74 1013.9
20260508034609 11 311 4.8 11.3 0.00 0.23 0.23 74 1013.8
20260508034502 11 302 4.8 9.7 0.00 0.23 0.23 74 1013.9
20260508034403 11 301 4.8 8.0 0.00 0.23 0.23 74 1013.9
20260508034302 11 294 4.8 8.0 0.00 0.23 0.23 74 1013.8
20260508034203 11 318 4.8 8.0 0.00 0.23 0.23 75 1013.9
20260508034104 11 292 4.8 12.9 0.00 0.23 0.23 76 1013.9
20260508033957 11 291 4.8 12.9 0.00 0.23 0.23 76 1013.8
20260508033856 11 291 4.8 12.9 0.00 0.23 0.23 74 1013.9
20260508033757 11 291 4.8 12.9 0.00 0.23 0.23 74 1013.8
20260508033657 11 290 4.8 12.9 0.00 0.23 0.23 74 1013.8
20260508033558 11 296 4.8 16.1 0.00 0.23 0.23 74 1013.9
20260508033453 11 296 6.4 16.1 0.00 0.23 0.23 74 1013.9
20260508033352 11 297 6.4 16.1 0.00 0.23 0.23 74 1013.9
20260508033252 11 311 6.4 16.1 0.00 0.23 0.23 74 1013.8
20260508033149 11 313 6.4 16.1 0.00 0.23 0.23 74 1013.8
20260508033048 11 317 4.8 16.1 0.00 0.23 0.23 74 1013.8
20260508032948 11 300 4.8 16.1 0.00 0.23 0.23 74 1013.8
20260508032850 11 311 4.8 16.1 0.00 0.23 0.23 74 1013.7
20260508032746 11 311 4.8 16.1 0.00 0.23 0.23 74 1013.8
20260508032647 11 309 4.8 16.1 0.00 0.23 0.23 74 1013.9
20260508032547 11 292 4.8 9.7 0.00 0.23 0.23 74 1013.9
20260508032445 11 292 4.8 9.7 0.00 0.23 0.23 74 1013.8
20260508032343 11 267 4.8 11.3 0.00 0.23 0.23 74 1013.8
20260508032244 11 292 4.8 11.3 0.00 0.23 0.23 74 1013.8
20260508032142 11 291 4.8 11.3 0.00 0.23 0.23 74 1013.8
20260508032043 11 301 4.8 12.9 0.00 0.23 0.23 74 1013.8
20260508031944 11 292 6.4 12.9 0.00 0.23 0.23 74 1013.8
20260508031841 11 292 6.4 12.9 0.00 0.23 0.23 75 1013.8
20260508031741 11 292 6.4 12.9 0.00 0.23 0.23 74 1013.8
20260508031641 11 292 6.4 12.9 0.00 0.23 0.23 73 1013.8
20260508031541 11 292 8.0 12.9 0.00 0.23 0.23 73 1013.8
20260508031442 11 282 8.0 12.9 0.00 0.23 0.23 73 1013.9
20260508031341 11 289 8.0 12.9 0.00 0.23 0.23 73 1013.9
20260508031234 11 289 8.0 12.9 0.00 0.23 0.23 73 1013.9
20260508031135 11 308 8.0 12.9 0.00 0.23 0.23 73 1013.9
20260508031035 11 313 6.4 11.3 0.00 0.23 0.23 73 1013.8
20260508030935 11 294 8.0 11.3 0.00 0.23 0.23 73 1013.8
20260508030835 11 307 8.0 11.3 0.00 0.23 0.23 73 1013.8
20260508030729 11 306 8.0 12.9 0.00 0.23 0.23 73 1013.9
20260508030629 11 299 8.0 16.1 0.00 0.23 0.23 73 1013.8
20260508030529 11 298 8.0 16.1 0.00 0.23 0.23 73 1013.8
20260508030429 11 297 8.0 16.1 0.00 0.23 0.23 73 1013.8
20260508030330 11 296 8.0 16.1 0.00 0.23 0.23 73 1013.8
20260508030226 11 298 8.0 16.1 0.00 0.23 0.23 73 1013.7
20260508030124 11 329 9.7 16.1 0.00 0.23 0.23 73 1013.8
20260508030024 11 298 9.7 16.1 0.00 0.23 0.23 73 1013.7
20260508025924 11 286 9.7 16.1 0.00 0.23 0.23 73 1013.8
20260508025825 11 311 11.3 16.1 0.00 0.23 0.23 72 1013.7
20260508025724 11 311 11.3 16.1 0.00 0.23 0.23 73 1013.5
20260508025624 11 299 11.3 16.1 0.00 0.23 0.23 73 1013.5
20260508025525 11 313 11.3 16.1 0.00 0.23 0.23 73 1013.5
20260508025426 11 292 11.3 17.7 0.00 0.23 0.23 72 1013.5
20260508025323 11 320 11.3 17.7 0.00 0.23 0.23 72 1013.4
20260508025224 11 296 12.9 17.7 0.00 0.23 0.23 72 1013.5
20260508025121 11 315 12.9 17.7 0.00 0.23 0.23 72 1013.5
20260508025020 11 300 12.9 17.7 0.00 0.23 0.23 72 1013.4
20260508024920 11 304 12.9 19.3 0.00 0.23 0.23 73 1013.4
20260508024821 11 308 12.9 19.3 0.00 0.23 0.23 73 1013.4
20260508024721 11 303 12.9 19.3 0.00 0.23 0.23 72 1013.4
20260508024621 11 283 11.3 19.3 0.00 0.23 0.23 72 1013.4
20260508024514 11 319 11.3 19.3 0.00 0.23 0.23 72 1013.3
20260508024414 11 315 12.9 19.3 0.00 0.23 0.23 72 1013.3
20260508024315 11 269 12.9 19.3 0.00 0.23 0.23 72 1013.3
20260508024215 11 317 12.9 19.3 0.00 0.23 0.23 73 1013.3
20260508024114 11 284 12.9 20.9 0.00 0.23 0.23 72 1013.3
20260508024014 11 315 12.9 20.9 0.00 0.23 0.23 73 1013.3
20260508023915 11 293 12.9 20.9 0.00 0.25 0.23 72 1013.3
20260508023814 11 305 12.9 20.9 0.00 0.25 0.23 72 1013.3
20260508023716 11 321 12.9 20.9 0.00 0.25 0.23 73 1013.3
20260508023616 11 321 12.9 20.9 0.00 0.25 0.23 73 1013.2
20260508023515 11 302 12.9 20.9 0.00 0.25 0.23 72 1013.3
20260508023412 11 309 12.9 20.9 0.00 0.25 0.23 73 1013.3
20260508023312 11 298 12.9 20.9 0.00 0.25 0.23 73 1013.2
20260508023212 11 317 11.3 20.9 0.00 0.28 0.23 73 1013.2
20260508023112 11 287 11.3 17.7 0.00 0.28 0.23 73 1013.3
20260508023014 11 290 11.3 17.7 0.00 0.28 0.23 73 1013.2
20260508022912 11 304 11.3 17.7 0.00 0.28 0.23 73 1013.2
20260508022810 11 289 11.3 17.7 0.00 0.28 0.23 73 1013.2
20260508022708 11 290 11.3 17.7 0.00 0.28 0.23 73 1013.2
20260508022609 11 297 11.3 17.7 0.00 0.28 0.23 73 1013.2
20260508022508 11 294 11.3 17.7 0.00 0.28 0.23 73 1013.3
20260508022408 11 299 11.3 17.7 0.00 0.28 0.23 73 1013.2
20260508022308 11 298 11.3 17.7 0.00 0.28 0.23 73 1013.2
20260508022208 11 306 11.3 17.7 0.00 0.28 0.23 73 1013.3
20260508022109 11 318 11.3 17.7 0.00 0.28 0.23 73 1013.3
20260508022010 11 325 11.3 17.7 0.00 0.28 0.23 73 1013.2
20260508021909 11 290 11.3 17.7 0.00 0.28 0.23 73 1013.2
20260508021808 11 307 11.3 17.7 0.00 0.28 0.23 73 1013.2
20260508021708 11 297 11.3 22.5 0.00 0.30 0.23 73 1013.2
20260508021609 11 304 11.3 22.5 0.00 0.30 0.23 73 1013.1
20260508021509 11 290 11.3 22.5 0.00 0.30 0.23 73 1013.1
20260508021409 11 319 12.9 22.5 0.00 0.30 0.23 73 1013.1
20260508021310 11 279 12.9 22.5 0.00 0.30 0.23 73 1013.0
20260508021208 11 297 12.9 22.5 0.00 0.30 0.23 73 1013.0
20260508021108 11 304 12.9 22.5 0.00 0.30 0.23 73 1013.0
20260508021009 11 288 12.9 22.5 0.00 0.30 0.23 73 1013.0
20260508020910 11 305 11.3 22.5 0.00 0.30 0.23 73 1012.9
20260508020808 11 293 11.3 22.5 0.00 0.30 0.23 73 1013.0
20260508020709 11 322 11.3 19.3 0.00 0.30 0.23 73 1012.9
20260508020608 11 334 11.3 19.3 0.00 0.33 0.23 73 1012.8
20260508020508 11 286 11.3 20.9 0.00 0.33 0.23 73 1012.8
20260508020409 11 327 12.9 20.9 0.00 0.33 0.23 73 1012.8
20260508020312 11 306 12.9 20.9 0.00 0.33 0.23 73 1012.8
20260508020208 11 294 12.9 20.9 0.00 0.33 0.23 73 1012.8
20260508020109 11 308 12.9 20.9 0.00 0.33 0.23 73 1012.8
20260508020009 11 298 12.9 20.9 0.00 0.33 0.23 73 1012.8
20260508015908 11 311 12.9 20.9 0.00 0.33 0.23 73 1012.8
20260508015809 11 317 11.3 20.9 0.00 0.33 0.23 73 1012.8
20260508015709 11 298 11.3 20.9 0.00 0.33 0.23 73 1012.8
20260508015610 11 329 9.7 20.9 0.00 0.33 0.23 73 1012.9
20260508015505 11 291 9.7 17.7 0.00 0.33 0.23 73 1012.8
20260508015406 11 292 9.7 17.7 0.00 0.33 0.23 72 1012.9
20260508015307 11 288 9.7 17.7 0.00 0.33 0.23 73 1012.8
20260508015205 11 309 9.7 17.7 0.00 0.33 0.23 73 1012.9
20260508015104 11 298 9.7 19.3 0.00 0.33 0.23 73 1012.8
20260508015004 11 329 9.7 20.9 0.00 0.33 0.23 73 1012.9
20260508014904 11 307 9.7 20.9 0.00 0.33 0.23 72 1012.7
20260508014806 11 331 11.3 20.9 0.00 0.33 0.23 73 1012.8
20260508014705 11 306 11.3 20.9 0.00 0.33 0.23 72 1012.7
20260508014604 11 300 11.3 20.9 0.00 0.36 0.23 72 1012.7
20260508014505 11 319 11.3 20.9 0.00 0.36 0.23 72 1012.5
20260508014405 11 284 11.3 20.9 0.00 0.36 0.23 72 1012.6
20260508014304 11 313 11.3 20.9 0.00 0.36 0.23 72 1012.5
20260508014206 11 276 11.3 20.9 0.00 0.36 0.23 72 1012.5
20260508014105 11 313 11.3 20.9 0.00 0.36 0.23 72 1012.5
20260508014005 11 350 11.3 20.9 0.00 0.36 0.23 72 1012.5
20260508013905 11 332 11.3 20.9 0.00 0.36 0.23 72 1012.5
20260508013805 11 311 9.7 19.3 0.00 0.36 0.23 72 1012.4
20260508013704 11 304 9.7 17.7 0.00 0.36 0.23 72 1012.4
20260508013604 11 322 9.7 17.7 0.00 0.36 0.23 72 1012.5
20260508013505 11 300 9.7 16.1 0.00 0.36 0.23 72 1012.4
20260508013406 11 325 9.7 16.1 0.00 0.36 0.23 72 1012.4
20260508013304 11 312 9.7 16.1 0.00 0.36 0.23 72 1012.3
20260508013205 11 311 11.3 17.7 0.00 0.36 0.23 72 1012.3
20260508013105 11 301 11.3 17.7 0.00 0.36 0.23 72 1012.3
20260508013005 11 298 11.3 17.7 0.00 0.36 0.23 72 1012.3
20260508012858 11 304 11.3 17.7 0.00 0.36 0.23 72 1012.2
20260508012758 11 324 11.3 17.7 0.00 0.36 0.23 72 1012.3
20260508012657 11 334 11.3 17.7 0.00 0.36 0.23 72 1012.2
20260508012556 11 308 11.3 17.7 0.00 0.36 0.23 72 1012.3
20260508012456 11 281 11.3 17.7 0.00 0.36 0.23 72 1012.2
20260508012356 11 305 12.9 17.7 0.00 0.36 0.23 72 1012.2
20260508012256 11 311 12.9 20.9 0.00 0.36 0.23 72 1012.1
20260508012157 11 313 11.3 20.9 0.00 0.36 0.23 72 1012.1
20260508012057 11 321 11.3 20.9 0.00 0.36 0.23 72 1012.1
20260508011957 11 309 11.3 20.9 0.00 0.36 0.23 72 1012.2
20260508011857 11 313 11.3 20.9 0.00 0.36 0.23 72 1012.2
20260508011756 11 346 11.3 20.9 0.00 0.36 0.23 72 1012.1
20260508011658 11 319 11.3 20.9 0.00 0.36 0.23 72 1012.1
20260508011557 11 315 11.3 20.9 0.00 0.36 0.23 73 1012.2
20260508011456 11 313 11.3 20.9 0.00 0.36 0.23 72 1012.2
20260508011356 11 331 9.7 20.9 0.00 0.36 0.23 72 1012.1
20260508011256 11 283 9.7 17.7 0.00 0.36 0.23 72 1012.1
20260508011156 11 314 9.7 16.1 0.00 0.36 0.23 72 1012.0
20260508011056 11 314 9.7 16.1 0.00 0.36 0.23 72 1012.1
20260508010956 11 296 9.7 16.1 0.00 0.36 0.23 72 1012.1
20260508010856 11 291 9.7 16.1 0.00 0.36 0.23 73 1012.0
20260508010756 11 305 9.7 16.1 0.00 0.36 0.23 72 1012.1
20260508010656 11 289 8.0 16.1 0.00 0.36 0.23 73 1012.1
20260508010557 11 292 8.0 16.1 0.00 0.36 0.23 72 1012.0
20260508010457 11 298 8.0 16.1 0.00 0.36 0.23 72 1012.0
20260508010357 11 298 9.7 16.1 0.00 0.36 0.23 72 1012.0
20260508010257 11 308 9.7 16.1 0.00 0.36 0.23 72 1011.8
20260508010156 11 286 9.7 16.1 0.00 0.36 0.23 72 1011.8
20260508010056 11 299 9.7 16.1 0.00 0.38 0.23 73 1012.0
20260508005958 11 314 9.7 16.1 0.00 0.38 0.23 73 1011.8
20260508005857 11 288 9.7 16.1 0.00 0.38 0.23 72 1012.0
20260508005758 11 318 9.7 16.1 0.00 0.38 0.23 72 1011.8
20260508005657 11 322 11.3 16.1 0.00 0.38 0.23 72 1011.8
20260508005552 11 314 11.3 17.7 0.00 0.38 0.23 72 1012.0
20260508005453 11 302 12.9 17.7 0.00 0.38 0.23 72 1012.0
20260508005353 11 325 12.9 17.7 0.00 0.38 0.23 72 1012.0
20260508005252 12 342 12.9 20.9 0.00 0.38 0.23 72 1011.8
20260508005152 12 300 12.9 20.9 0.00 0.38 0.23 72 1011.8
20260508005052 12 300 14.5 20.9 0.00 0.38 0.23 72 1011.8
20260508004954 12 319 14.5 20.9 0.00 0.38 0.23 72 1011.7
20260508004854 12 315 14.5 20.9 0.00 0.38 0.23 72 1011.8
20260508004752 12 299 16.1 25.7 0.00 0.38 0.23 72 1011.8
20260508004652 12 325 16.1 25.7 0.00 0.38 0.23 72 1011.7
20260508004552 12 309 16.1 25.7 0.00 0.38 0.23 72 1011.7
20260508004452 12 319 16.1 25.7 0.00 0.38 0.23 72 1011.6
20260508004353 12 329 16.1 25.7 0.00 0.38 0.23 72 1011.7
20260508004253 12 332 16.1 25.7 0.00 0.38 0.23 72 1011.6
20260508004152 12 311 16.1 25.7 0.00 0.38 0.23 72 1011.6
20260508004054 12 333 14.5 25.7 0.00 0.38 0.23 72 1011.6
20260508003952 12 292 14.5 25.7 0.00 0.38 0.23 72 1011.6
20260508003852 12 314 14.5 25.7 0.00 0.41 0.23 72 1011.6
20260508003752 12 296 14.5 24.1 0.00 0.41 0.23 72 1011.7
20260508003653 12 288 14.5 24.1 0.00 0.41 0.23 72 1011.7
20260508003553 12 333 14.5 24.1 0.00 0.41 0.23 72 1011.7
20260508003452 12 295 14.5 24.1 0.00 0.41 0.23 72 1011.8
20260508003352 12 294 14.5 24.1 0.00 0.41 0.23 72 1011.7
20260508003252 12 297 14.5 22.5 0.00 0.41 0.23 72 1011.7
20260508003154 12 303 16.1 22.5 0.00 0.41 0.23 72 1011.6
20260508003053 12 300 16.1 22.5 0.00 0.41 0.23 72 1011.6
20260508002952 12 294 16.1 25.7 0.00 0.41 0.23 72 1011.7
20260508002852 12 315 17.7 25.7 0.00 0.41 0.23 71 1011.7
20260508002751 12 313 17.7 25.7 0.00 0.41 0.23 72 1011.7
20260508002653 12 288 17.7 25.7 0.00 0.41 0.23 71 1011.6
20260508002553 12 355 17.7 27.4 0.00 0.41 0.23 72 1011.7
20260508002453 12 320 17.7 27.4 0.00 0.41 0.23 72 1011.7
20260508002353 12 336 17.7 27.4 0.00 0.41 0.23 72 1011.6
20260508002248 12 300 17.7 27.4 0.00 0.43 0.23 71 1011.7
20260508002148 12 312 17.7 27.4 0.00 0.43 0.23 71 1011.7
20260508002049 12 300 17.7 27.4 0.00 0.43 0.23 71 1011.6
20260508001948 12 329 17.7 27.4 0.00 0.43 0.23 71 1011.6
20260508001848 12 304 17.7 29.0 0.00 0.43 0.23 71 1011.6
20260508001749 12 280 17.7 29.0 0.00 0.43 0.23 71 1011.6
20260508001646 12 323 16.1 29.0 0.00 0.43 0.23 72 1011.6
20260508001546 12 312 16.1 29.0 0.00 0.43 0.23 73 1011.6
20260508001446 12 317 16.1 29.0 0.00 0.46 0.23 73 1011.7
20260508001348 12 319 16.1 29.0 0.00 0.46 0.23 73 1011.7
20260508001246 12 313 16.1 29.0 0.00 0.46 0.23 73 1011.8
20260508001148 12 302 16.1 29.0 0.00 0.46 0.23 73 1011.8
20260508001043 12 335 16.1 29.0 0.00 0.46 0.23 73 1011.7
20260508000943 12 320 14.5 29.0 0.00 0.46 0.23 73 1011.7
20260508000842 12 300 14.5 25.7 0.00 0.46 0.23 74 1011.7
20260508000742 12 311 14.5 25.7 0.00 0.46 0.23 74 1011.7
20260508000642 12 326 14.5 25.7 0.00 0.46 0.23 74 1011.7
20260508000544 12 296 14.5 25.7 0.00 0.46 0.23 75 1011.7
20260508000442 12 317 14.5 25.7 0.00 0.46 0.23 74 1011.8
20260508000342 12 318 14.5 25.7 0.00 0.46 0.23 74 1011.7
20260508000242 12 292 14.5 24.1 0.00 0.46 0.23 76 1011.8
20260508000140 12 302 14.5 22.5 0.00 0.48 0.23 76 1012.0
20260508000039 12 298 14.5 22.5 0.00 0.48 0.23 76 1011.8
20260507235936 12 318 14.5 22.5 0.00 0.48 0.23 76 1011.8
20260507235836 12 319 14.5 22.5 0.00 0.48 0.23 76 1011.8
20260507235736 12 282 14.5 22.5 0.00 0.48 0.23 76 1011.8
20260507235635 12 306 14.5 22.5 0.00 0.48 0.23 76 1011.7
20260507235537 13 296 14.5 22.5 0.00 0.48 0.23 76 1011.7
20260507235434 13 296 14.5 22.5 0.00 0.48 0.23 76 1011.7
20260507235330 13 324 12.9 20.9 0.00 0.48 0.23 77 1011.6
20260507235230 13 315 12.9 20.9 0.00 0.48 0.23 78 1011.6
20260507235131 13 314 12.9 20.9 0.00 0.48 0.23 78 1011.6
20260507235029 13 355 12.9 20.9 0.00 0.48 0.23 78 1011.7
20260507234930 13 282 12.9 20.9 0.00 0.48 0.23 78 1011.6
20260507234830 13 328 12.9 20.9 0.00 0.48 0.23 78 1011.6
20260507234732 13 320 12.9 20.9 0.00 0.48 0.23 78 1011.7
20260507234630 13 297 11.3 20.9 0.00 0.48 0.23 78 1011.7
20260507234530 13 316 11.3 19.3 0.00 0.48 0.23 79 1011.6
20260507234428 13 309 11.3 19.3 0.00 0.48 0.23 79 1011.6
20260507234329 13 292 12.9 19.3 0.00 0.48 0.23 79 1011.6
20260507234228 13 309 12.9 20.9 0.00 0.48 0.23 79 1011.6
20260507234128 13 269 12.9 20.9 0.00 0.48 0.23 79 1011.6
20260507234030 13 291 12.9 20.9 0.00 0.51 0.23 79 1011.6
20260507233930 13 286 12.9 22.5 0.00 0.51 0.23 79 1011.6
20260507233828 13 327 14.5 22.5 0.00 0.51 0.23 79 1011.6
20260507233728 13 317 14.5 22.5 0.00 0.51 0.23 78 1011.6
20260507233623 13 325 14.5 22.5 0.00 0.51 0.23 78 1011.6
20260507233524 13 306 14.5 22.5 0.00 0.51 0.23 78 1011.6
20260507233424 13 314 16.1 25.7 0.00 0.51 0.23 78 1011.5
20260507233323 13 312 16.1 25.7 0.00 0.51 0.23 78 1011.5
20260507233222 13 328 16.1 25.7 0.00 0.51 0.23 78 1011.5
20260507233118 13 281 16.1 25.7 0.00 0.51 0.23 79 1011.5
20260507233018 13 304 16.1 25.7 0.00 0.51 0.23 79 1011.4
20260507232918 13 311 16.1 25.7 0.00 0.51 0.23 79 1011.5
20260507232817 13 325 16.1 25.7 0.00 0.51 0.23 79 1011.4
20260507232718 13 321 17.7 30.6 0.00 0.51 0.23 79 1011.4
20260507232618 13 313 17.7 32.2 0.00 0.51 0.23 79 1011.3
20260507232518 13 336 17.7 32.2 0.00 0.51 0.23 79 1011.3
20260507232417 13 306 17.7 32.2 0.00 0.51 0.23 78 1011.3
20260507232317 13 314 17.7 32.2 0.00 0.51 0.23 78 1011.3
20260507232217 13 318 17.7 32.2 0.00 0.51 0.23 78 1011.3
20260507232115 13 321 17.7 32.2 0.00 0.51 0.23 78 1011.2
20260507232014 13 304 17.7 32.2 0.00 0.51 0.23 78 1011.3
20260507231914 13 287 17.7 32.2 0.00 0.51 0.23 78 1011.2
20260507231815 13 331 17.7 32.2 0.00 0.51 0.23 78 1011.2
20260507231715 13 314 16.1 32.2 0.00 0.51 0.23 78 1011.2
20260507231615 13 339 16.1 27.4 0.00 0.51 0.23 78 1011.1
20260507231514 13 328 16.1 27.4 0.00 0.51 0.23 78 1011.1
20260507231410 13 325 16.1 27.4 0.00 0.51 0.23 79 1011.2
20260507231309 13 307 16.1 27.4 0.00 0.51 0.23 79 1011.2
20260507231210 13 275 16.1 27.4 0.00 0.51 0.23 78 1011.2
20260507231108 13 327 16.1 27.4 0.00 0.51 0.23 78 1011.1
20260507231009 13 291 16.1 25.7 0.00 0.51 0.23 78 1011.1
20260507230859 13 303 14.5 25.7 0.00 0.51 0.23 79 1011.2
20260507230759 13 319 16.1 25.7 0.00 0.51 0.23 79 1011.1
20260507230659 13 304 16.1 29.0 0.00 0.51 0.23 78 1011.0
20260507230558 13 302 16.1 29.0 0.00 0.51 0.23 78 1011.1
20260507230459 13 329 16.1 29.0 0.00 0.51 0.23 78 1011.0
20260507230353 14 295 16.1 29.0 0.00 0.51 0.23 78 1011.1
20260507230254 14 315 16.1 29.0 0.00 0.51 0.23 78 1011.1
20260507230153 14 290 16.1 29.0 0.00 0.51 0.23 78 1011.0
20260507230053 14 311 16.1 29.0 0.00 0.51 0.23 78 1011.1
20260507225953 14 301 16.1 29.0 0.00 0.51 0.23 78 1011.0
20260507225849 14 323 16.1 29.0 0.00 0.51 0.23 78 1011.1
20260507225746 14 306 16.1 27.4 0.00 0.51 0.23 78 1011.0
20260507225647 14 319 16.1 27.4 0.00 0.51 0.23 78 1011.0
20260507225547 14 317 14.5 27.4 0.00 0.51 0.23 79 1010.9
20260507225447 14 331 14.5 27.4 0.00 0.51 0.23 79 1010.9
20260507225336 14 308 14.5 27.4 0.00 0.51 0.23 79 1010.9
20260507225236 14 304 14.5 25.7 0.00 0.51 0.23 79 1011.0
20260507225136 14 331 14.5 25.7 0.00 0.51 0.23 79 1011.0
20260507225037 14 319 14.5 25.7 0.00 0.51 0.23 80 1011.0
20260507224935 14 303 14.5 25.7 0.00 0.51 0.23 80 1011.0
20260507224829 13 311 14.5 25.7 0.00 0.51 0.23 80 1010.9
20260507224729 13 329 16.1 25.7 0.00 0.51 0.23 80 1010.9
20260507224629 13 325 16.1 25.7 0.00 0.51 0.23 80 1010.9
20260507224528 13 327 16.1 25.7 0.00 0.51 0.23 81 1011.0
20260507224428 13 314 14.5 25.7 0.00 0.51 0.23 81 1011.1
20260507224323 13 331 14.5 25.7 0.00 0.51 0.23 80 1011.0
20260507224223 13 319 14.5 25.7 0.00 0.51 0.23 80 1011.0
20260507224123 13 298 14.5 25.7 0.00 0.51 0.23 80 1011.0
20260507224024 13 315 14.5 25.7 0.00 0.51 0.23 80 1010.9
20260507223922 13 304 12.9 25.7 0.00 0.51 0.23 80 1011.0
20260507223813 13 309 12.9 25.7 0.00 0.51 0.23 80 1010.9
20260507223713 13 336 12.9 20.9 0.00 0.51 0.23 81 1011.0
20260507223613 13 344 12.9 20.9 0.00 0.51 0.23 81 1010.9
20260507223512 14 298 11.3 20.9 0.00 0.51 0.23 82 1011.0
20260507223413 14 336 11.3 20.9 0.00 0.51 0.23 81 1011.0
20260507223307 14 308 12.9 29.0 0.00 0.51 0.23 82 1010.9
20260507223207 14 319 12.9 29.0 0.00 0.51 0.23 82 1010.9
20260507223107 14 316 12.9 29.0 0.00 0.51 0.23 82 1010.9
20260507223007 14 319 12.9 29.0 0.00 0.51 0.23 82 1010.9
20260507222907 14 298 14.5 29.0 0.00 0.51 0.23 81 1010.9
20260507222801 14 325 14.5 29.0 0.00 0.51 0.23 82 1010.9
20260507222701 14 305 14.5 29.0 0.00 0.51 0.23 82 1010.8
20260507222601 14 306 14.5 29.0 0.00 0.51 0.23 82 1010.8
20260507222500 14 333 16.1 29.0 0.00 0.51 0.23 82 1010.8
20260507222400 14 334 16.1 29.0 0.00 0.51 0.23 82 1010.7
20260507222250 15 301 14.5 25.7 0.00 0.51 0.23 84 1010.6
20260507222150 15 300 14.5 22.5 0.00 0.51 0.23 84 1010.6
20260507222051 15 282 14.5 22.5 0.00 0.51 0.23 84 1010.6
20260507221951 15 355 14.5 22.5 0.00 0.51 0.23 85 1010.7
20260507221850 15 324 14.5 22.5 0.00 0.51 0.23 85 1010.6
20260507221746 15 338 12.9 22.5 0.00 0.51 0.23 85 1010.6
20260507221646 15 28 12.9 22.5 0.00 0.51 0.23 85 1010.6
20260507221547 15 311 11.3 20.9 0.00 0.51 0.23 86 1010.7
20260507221446 15 334 11.3 19.3 0.00 0.51 0.23 86 1010.6
20260507221344 15 319 11.3 19.3 0.00 0.51 0.23 86 1010.6
20260507221239 15 351 11.3 19.3 0.00 0.51 0.23 85 1010.6
20260507221138 15 325 9.7 19.3 0.00 0.51 0.23 85 1010.5
20260507221039 15 351 9.7 19.3 0.00 0.51 0.23 85 1010.5
20260507220940 15 313 9.7 19.3 0.00 0.51 0.23 85 1010.6
20260507220838 15 336 8.0 19.3 0.00 0.51 0.23 85 1010.4
20260507220729 15 355 8.0 16.1 0.00 0.51 0.23 85 1010.5
20260507220628 15 348 8.0 16.1 0.00 0.51 0.23 85 1010.4
20260507220529 15 13 8.0 16.1 0.00 0.51 0.23 85 1010.4
20260507220428 16 334 6.4 16.1 0.00 0.51 0.23 85 1010.4
20260507220329 16 335 6.4 14.5 0.00 0.51 0.23 85 1010.5
20260507220222 16 333 6.4 12.9 0.00 0.51 0.23 85 1010.2
20260507220122 16 312 4.8 12.9 0.00 0.51 0.23 84 1010.4
20260507220022 16 310 4.8 12.9 0.00 0.51 0.23 84 1010.5
20260507215923 16 309 4.8 12.9 0.00 0.51 0.23 84 1010.4
20260507215822 16 328 4.8 14.5 0.00 0.51 0.23 84 1010.4
20260507215722 16 22 6.4 14.5 0.00 0.51 0.23 84 1010.2
20260507215621 16 0 6.4 14.5 0.00 0.51 0.23 83 1010.2
20260507215520 16 19 6.4 14.5 0.00 0.51 0.23 84 1010.1
20260507215419 16 9 6.4 14.5 0.00 0.51 0.23 84 1010.2
20260507215317 16 14 6.4 14.5 0.00 0.51 0.23 84 1010.4
20260507215207 16 344 6.4 14.5 0.00 0.51 0.23 83 1010.4
20260507215108 16 347 6.4 14.5 0.00 0.51 0.23 84 1010.2
20260507215007 16 348 6.4 14.5 0.00 0.51 0.23 84 1010.2
20260507214906 16 346 6.4 14.5 0.00 0.51 0.23 84 1010.1
20260507214806 16 321 6.4 12.9 0.00 0.51 0.23 84 1010.1
20260507214702 16 40 6.4 12.9 0.00 0.51 0.23 84 1010.1
20260507214601 16 11 6.4 12.9 0.00 0.51 0.23 84 1010.0
20260507214501 16 30 6.4 12.9 0.00 0.51 0.23 84 1010.1
20260507214401 16 31 6.4 12.9 0.00 0.51 0.23 84 1010.0
20260507214301 16 5 6.4 12.9 0.00 0.51 0.23 84 1010.0
20260507214158 16 30 6.4 12.9 0.00 0.51 0.23 84 1010.0
20260507214058 16 38 4.8 12.9 0.00 0.51 0.23 84 1010.0
20260507213957 16 53 4.8 12.9 0.00 0.51 0.23 84 1010.0
20260507213857 16 355 4.8 12.9 0.00 0.51 0.23 84 1010.1
20260507213754 16 25 4.8 11.3 0.00 0.51 0.23 84 1010.1
20260507213649 16 21 4.8 11.3 0.00 0.51 0.23 83 1010.2
20260507213548 16 46 4.8 11.3 0.00 0.51 0.23 83 1010.1
20260507213447 16 32 4.8 11.3 0.00 0.51 0.23 84 1010.1
20260507213345 16 38 4.8 11.3 0.00 0.51 0.23 84 1010.0
20260507213246 16 49 6.4 12.9 0.00 0.51 0.23 84 1010.1
20260507213145 16 79 6.4 12.9 0.00 0.51 0.23 84 1010.0
20260507213042 16 80 6.4 12.9 0.00 0.51 0.23 83 1010.0
20260507212943 16 78 4.8 12.9 0.00 0.51 0.23 83 1009.9
20260507212841 16 55 4.8 12.9 0.00 0.51 0.23 83 1009.8
20260507212739 16 80 4.8 12.9 0.00 0.51 0.23 83 1009.8
20260507212634 16 78 4.8 12.9 0.00 0.51 0.23 83 1009.8
20260507212531 16 59 4.8 12.9 0.00 0.51 0.23 83 1009.7
20260507212433 16 67 3.2 12.9 0.00 0.51 0.23 83 1009.8
20260507212334 16 86 3.2 12.9 0.00 0.51 0.23 84 1009.7
20260507212233 16 63 1.6 8.0 0.00 0.51 0.23 84 1009.8
20260507212123 16 63 1.6 8.0 0.00 0.51 0.23 85 1009.8
20260507212022 16 71 1.6 8.0 0.00 0.51 0.23 84 1009.8
20260507211923 16 28 1.6 8.0 0.00 0.51 0.23 84 1009.8
20260507211823 16 39 1.6 8.0 0.00 0.51 0.23 84 1009.9
20260507211722 16 40 1.6 8.0 0.00 0.51 0.23 84 1009.9
20260507211619 16 34 1.6 8.0 0.00 0.51 0.23 84 1009.8
20260507211517 16 59 0.0 6.4 0.00 0.51 0.23 84 1009.9
20260507211417 16 99 1.6 14.5 0.00 0.51 0.23 84 1009.7
20260507211316 16 36 1.6 14.5 0.00 0.51 0.23 84 1009.7
20260507211217 16 32 1.6 14.5 0.00 0.51 0.23 84 1009.6
20260507211115 16 22 1.6 14.5 0.00 0.51 0.23 84 1009.6
20260507211015 16 5 1.6 14.5 0.00 0.51 0.23 84 1009.6
20260507210914 16 0 1.6 14.5 0.00 0.51 0.23 84 1009.7
20260507210812 16 0 1.6 14.5 0.00 0.51 0.23 84 1009.7
20260507210711 16 5 1.6 14.5 0.00 0.51 0.23 84 1009.6
20260507210601 16 26 1.6 14.5 0.00 0.51 0.23 85 1009.5
20260507210500 16 319 1.6 14.5 0.00 0.51 0.23 85 1009.5
20260507210401 16 351 0.0 6.4 0.00 0.51 0.23 86 1009.5
20260507210259 16 340 0.0 6.4 0.00 0.51 0.23 86 1009.5
20260507210201 16 55 0.0 6.4 0.00 0.51 0.23 84 1009.4
20260507210100 16 61 0.0 6.4 0.00 0.51 0.23 84 1009.4
20260507205959 16 53 0.0 6.4 0.00 0.51 0.23 84 1009.3
20260507205859 16 74 0.0 6.4 0.00 0.51 0.23 84 1009.3
20260507205757 16 71 0.0 6.4 0.00 0.51 0.23 85 1009.3
20260507205655 16 71 0.0 6.4 0.00 0.51 0.23 85 1009.2
20260507205549 16 22 0.0 6.4 0.00 0.51 0.23 85 1009.2
20260507205447 16 69 0.0 4.8 0.00 0.51 0.23 84 1009.3
20260507205349 16 70 0.0 4.8 0.00 0.51 0.23 85 1009.3
20260507205247 16 77 0.0 4.8 0.00 0.51 0.23 86 1009.3
20260507205148 16 22 0.0 4.8 0.00 0.51 0.23 86 1009.3
20260507205040 16 5 0.0 8.0 0.00 0.51 0.23 85 1009.3
20260507204940 16 355 0.0 8.0 0.00 0.51 0.23 85 1009.3
20260507204841 16 339 0.0 8.0 0.00 0.51 0.23 85 1009.3
20260507204740 16 13 0.0 8.0 0.00 0.51 0.23 85 1009.3
20260507204638 16 21 0.0 8.0 0.00 0.51 0.23 84 1009.3
20260507204537 16 39 0.0 8.0 0.00 0.51 0.23 85 1009.3
20260507204437 16 350 0.0 8.0 0.00 0.51 0.23 85 1009.3
20260507204335 16 28 0.0 8.0 0.00 0.51 0.23 85 1009.3
20260507204235 16 65 0.0 8.0 0.00 0.51 0.23 85 1009.3
20260507204132 16 90 0.0 8.0 0.00 0.51 0.23 85 1009.3
20260507204028 16 54 0.0 1.6 0.00 0.51 0.23 85 1009.3
20260507203926 17 49 0.0 1.6 0.00 0.51 0.23 85 1009.3
20260507203827 17 49 0.0 1.6 0.00 0.51 0.23 84 1009.4
20260507203726 17 72 0.0 1.6 0.00 0.51 0.23 84 1009.4
20260507203627 17 74 0.0 1.6 0.00 0.51 0.23 84 1009.3
20260507203520 17 60 0.0 1.6 0.00 0.51 0.23 85 1009.3
20260507203421 17 49 0.0 1.6 0.00 0.51 0.23 85 1009.2
20260507203318 17 46 0.0 1.6 0.00 0.51 0.23 85 1009.2
20260507203219 17 59 0.0 1.6 0.00 0.51 0.23 85 1009.3
20260507203117 17 78 0.0 0.0 0.00 0.51 0.23 85 1009.2
20260507203013 17 96 0.0 1.6 0.00 0.51 0.23 85 1009.3
20260507202910 17 90 0.0 3.2 0.00 0.51 0.23 85 1009.2
20260507202810 17 86 0.0 3.2 0.00 0.51 0.23 85 1009.2
20260507202711 17 57 0.0 3.2 0.00 0.51 0.23 85 1009.2
20260507202610 17 75 0.0 4.8 0.00 0.51 0.23 85 1009.1
20260507202505 17 63 1.6 4.8 0.00 0.51 0.23 85 1009.2
20260507202403 17 61 1.6 6.4 0.00 0.51 0.23 85 1009.1
20260507202307 17 105 1.6 12.9 0.00 0.51 0.23 85 1009.2
20260507202205 17 72 1.6 12.9 0.00 0.51 0.23 85 1009.2
20260507202104 17 82 3.2 12.9 0.00 0.51 0.23 85 1009.2
20260507201958 17 88 4.8 12.9 0.00 0.51 0.23 86 1009.3
20260507201857 17 40 4.8 14.5 0.00 0.51 0.23 86 1009.2
20260507201759 17 51 6.4 14.5 0.00 0.51 0.23 86 1009.1
20260507201657 17 76 6.4 14.5 0.00 0.51 0.23 86 1009.1
20260507201555 17 63 8.0 14.5 0.00 0.51 0.23 86 1009.1
20260507201454 17 57 8.0 16.1 0.00 0.51 0.23 85 1009.1
20260507201353 17 78 8.0 16.1 0.00 0.51 0.23 85 1009.0
20260507201252 17 86 8.0 16.1 0.00 0.51 0.23 85 1009.0
20260507201151 17 82 8.0 16.1 0.00 0.51 0.23 85 1009.0
20260507201048 17 87 9.7 16.1 0.00 0.51 0.23 85 1009.0
20260507200946 17 74 8.0 16.1 0.00 0.51 0.23 85 1009.1
20260507200846 17 67 8.0 16.1 0.00 0.51 0.23 85 1009.1
20260507200744 17 55 9.7 16.1 0.00 0.51 0.23 85 1009.1
20260507200645 17 44 9.7 16.1 0.00 0.51 0.23 86 1009.0
20260507200543 17 40 9.7 16.1 0.00 0.51 0.23 86 1009.0
20260507200435 17 94 8.0 16.1 0.00 0.51 0.23 86 1009.0
20260507200332 17 72 6.4 16.1 0.00 0.51 0.23 86 1009.1
20260507200233 17 78 6.4 16.1 0.00 0.51 0.23 86 1009.0
20260507200132 17 78 4.8 16.1 0.00 0.51 0.23 86 1009.0
20260507200032 17 34 4.8 16.1 0.00 0.51 0.23 85 1009.1
20260507195929 17 76 3.2 14.5 0.00 0.51 0.23 85 1009.1
20260507195826 17 77 3.2 14.5 0.00 0.51 0.23 86 1009.1
20260507195726 17 76 1.6 14.5 0.00 0.51 0.23 86 1009.1
20260507195627 17 63 1.6 14.5 0.00 0.51 0.23 85 1009.1
20260507195527 17 43 0.0 8.0 0.00 0.51 0.23 85 1009.2
20260507195421 17 57 1.6 9.7 0.00 0.51 0.23 86 1009.1
20260507195319 17 63 1.6 12.9 0.00 0.51 0.23 86 1009.0
20260507195221 17 27 3.2 12.9 0.00 0.51 0.23 87 1009.2
20260507195120 17 55 3.2 14.5 0.00 0.51 0.23 87 1009.1
20260507195021 17 44 4.8 14.5 0.00 0.51 0.23 87 1009.2
20260507194911 17 38 6.4 17.7 0.00 0.51 0.23 88 1009.2
20260507194810 16 45 8.0 17.7 0.00 0.51 0.23 88 1009.2
20260507194711 16 86 8.0 17.7 0.00 0.51 0.23 88 1009.2
20260507194611 16 42 9.7 17.7 0.00 0.51 0.23 88 1009.2
20260507194511 16 43 9.7 17.7 0.00 0.51 0.23 87 1009.2
20260507194405 16 93 9.7 17.7 0.00 0.51 0.23 87 1009.2
20260507194305 16 95 9.7 17.7 0.00 0.51 0.23 87 1009.1
20260507194205 16 103 9.7 17.7 0.00 0.51 0.23 87 1009.2
20260507194105 16 78 9.7 17.7 0.00 0.51 0.23 87 1009.2
20260507194005 16 82 8.0 17.7 0.00 0.51 0.23 87 1009.2
20260507193859 16 89 8.0 17.7 0.00 0.51 0.23 88 1009.2
20260507193759 16 77 8.0 17.7 0.00 0.51 0.23 88 1009.2
20260507193658 16 98 9.7 17.7 0.00 0.51 0.23 88 1009.2
20260507193559 16 98 9.7 17.7 0.00 0.51 0.23 88 1009.3
20260507193458 16 93 9.7 17.7 0.00 0.51 0.23 88 1009.3
20260507193349 16 67 9.7 17.7 0.00 0.51 0.23 88 1009.3
20260507193248 16 57 9.7 20.9 0.00 0.51 0.23 89 1009.3
20260507193149 16 71 9.7 20.9 0.00 0.51 0.23 90 1009.2
20260507193047 16 88 9.7 20.9 0.00 0.51 0.23 90 1009.3
20260507192949 16 96 11.3 20.9 0.00 0.51 0.23 89 1009.3
20260507192843 16 98 11.3 20.9 0.00 0.51 0.23 90 1009.4
20260507192742 16 78 11.3 20.9 0.00 0.51 0.23 90 1009.3
20260507192642 15 80 11.3 20.9 0.00 0.51 0.23 90 1009.4
20260507192543 15 71 12.9 20.9 0.00 0.51 0.23 89 1009.3
20260507192443 15 98 11.3 20.9 0.00 0.51 0.23 89 1009.3
20260507192337 15 81 11.3 20.9 0.00 0.51 0.23 89 1009.4
20260507192237 15 93 11.3 19.3 0.00 0.51 0.23 89 1009.4
20260507192137 15 96 11.3 19.3 0.00 0.51 0.23 89 1009.4
20260507192035 15 121 11.3 19.3 0.00 0.51 0.23 89 1009.5
20260507191937 15 102 9.7 19.3 0.00 0.51 0.23 89 1009.5
20260507191827 15 106 11.3 19.3 0.00 0.51 0.23 89 1009.5
20260507191725 15 111 11.3 19.3 0.00 0.51 0.23 89 1009.5
20260507191627 15 77 11.3 20.9 0.00 0.51 0.23 89 1009.6
20260507191526 15 94 11.3 20.9 0.00 0.51 0.23 89 1009.5
20260507191427 15 98 9.7 24.1 0.00 0.51 0.23 89 1009.6
20260507191320 15 82 9.7 24.1 0.00 0.51 0.23 89 1009.6
20260507191221 15 55 11.3 24.1 0.00 0.51 0.23 89 1009.6
20260507191121 15 92 9.7 24.1 0.00 0.51 0.23 89 1009.6
20260507191021 15 107 9.7 24.1 0.00 0.51 0.23 89 1009.5
20260507190921 15 54 9.7 24.1 0.00 0.51 0.23 89 1009.5
20260507190815 15 43 9.7 24.1 0.00 0.51 0.23 88 1009.5
20260507190715 15 60 9.7 24.1 0.00 0.51 0.23 88 1009.5
20260507190614 15 332 9.7 24.1 0.00 0.51 0.23 89 1009.6
20260507190515 15 344 9.7 20.9 0.00 0.51 0.23 88 1009.6
20260507190415 15 26 9.7 20.9 0.00 0.51 0.23 88 1009.6
20260507190305 16 34 9.7 20.9 0.00 0.51 0.23 89 1009.6
20260507190203 16 50 9.7 20.9 0.00 0.51 0.23 89 1009.5
20260507190105 16 23 9.7 20.9 0.00 0.51 0.23 89 1009.6
20260507190005 16 44 11.3 20.9 0.00 0.51 0.23 88 1009.6
20260507185904 16 257 11.3 20.9 0.00 0.51 0.23 88 1009.5
20260507185758 16 5 11.3 20.9 0.00 0.51 0.23 88 1009.4
20260507185659 16 32 9.7 20.9 0.00 0.51 0.23 88 1009.3
20260507185559 16 12 9.7 20.9 0.00 0.51 0.23 88 1009.3
20260507185458 16 30 9.7 19.3 0.00 0.51 0.23 88 1009.4
20260507185358 16 355 9.7 19.3 0.00 0.51 0.23 88 1009.5
20260507185253 16 42 9.7 19.3 0.00 0.51 0.23 88 1009.4
20260507185152 16 30 9.7 19.3 0.00 0.51 0.23 88 1009.4
20260507185053 16 35 8.0 19.3 0.00 0.51 0.23 88 1009.4
20260507184952 16 9 8.0 17.7 0.00 0.51 0.23 87 1009.4
20260507184853 16 22 9.7 17.7 0.00 0.51 0.23 87 1009.4
20260507184743 16 25 9.7 17.7 0.00 0.51 0.23 87 1009.4
20260507184644 16 312 9.7 19.3 0.00 0.51 0.23 87 1009.3
20260507184543 16 69 9.7 19.3 0.00 0.51 0.23 87 1009.3
20260507184445 16 66 9.7 19.3 0.00 0.51 0.23 86 1009.3
20260507184343 16 94 9.7 19.3 0.00 0.51 0.23 86 1009.4
20260507184237 17 59 9.7 19.3 0.00 0.51 0.23 86 1009.4
20260507184136 17 85 9.7 19.3 0.00 0.51 0.23 86 1009.4
20260507184037 17 30 9.7 19.3 0.00 0.51 0.23 86 1009.4
20260507183937 17 24 9.7 19.3 0.00 0.51 0.23 85 1009.4
20260507183837 17 21 9.7 19.3 0.00 0.51 0.23 85 1009.4
20260507183730 17 27 9.7 19.3 0.00 0.51 0.23 86 1009.3
20260507183630 17 35 9.7 19.3 0.00 0.51 0.23 86 1009.1
20260507183530 17 29 9.7 19.3 0.00 0.51 0.23 86 1009.0
20260507183431 17 32 9.7 19.3 0.00 0.51 0.23 86 1009.2
20260507183330 17 69 8.0 19.3 0.00 0.51 0.23 86 1009.3
20260507183221 17 71 8.0 19.3 0.00 0.51 0.23 88 1009.3
20260507183121 17 47 8.0 19.3 0.00 0.51 0.23 87 1009.2
20260507183021 17 59 8.0 19.3 0.00 0.51 0.23 88 1009.2
20260507182920 17 38 8.0 19.3 0.00 0.51 0.23 87 1009.3
20260507182820 17 53 8.0 19.3 0.00 0.51 0.23 87 1009.3
20260507182715 17 5 8.0 19.3 0.00 0.51 0.23 87 1009.4
20260507182613 17 43 8.0 19.3 0.00 0.51 0.23 88 1009.5
20260507182514 17 17 8.0 19.3 0.00 0.51 0.23 87 1009.6
20260507182415 17 338 8.0 19.3 0.00 0.51 0.23 87 1009.6
20260507182315 17 5 9.7 19.3 0.00 0.51 0.23 87 1009.5
20260507182211 17 5 9.7 24.1 0.00 0.51 0.23 86 1009.5
20260507182108 17 22 11.3 25.7 0.00 0.51 0.23 86 1009.5
20260507182009 17 28 12.9 29.0 0.00 0.51 0.23 86 1009.4
20260507181909 17 36 12.9 29.0 0.00 0.51 0.23 86 1009.4
20260507181807 17 53 11.3 29.0 0.00 0.51 0.23 85 1009.4
20260507181657 17 5 9.7 29.0 0.00 0.51 0.23 85 1009.5
20260507181556 17 42 9.7 29.0 0.00 0.51 0.23 84 1009.5
20260507181456 17 10 8.0 29.0 0.00 0.51 0.23 84 1009.5
20260507181356 18 5 8.0 29.0 0.00 0.51 0.23 83 1009.4
20260507181257 18 10 4.8 29.0 0.00 0.51 0.23 82 1009.3
20260507181152 18 332 3.2 29.0 0.00 0.51 0.23 82 1009.3
20260507181053 19 17 1.6 25.7 0.00 0.51 0.23 82 1009.2
20260507180951 19 322 0.0 25.7 0.00 0.51 0.23 83 1009.2
20260507180851 20 11 0.0 0.0 0.00 0.51 0.23 84 1009.1
20260507180752 20 15 0.0 0.0 0.00 0.51 0.23 84 1009.1
20260507180653 20 344 0.0 0.0 0.00 0.51 0.23 84 1009.2
20260507180552 20 41 0.0 0.0 0.00 0.51 0.23 84 1009.1
20260507180451 20 27 0.0 0.0 0.00 0.51 0.23 84 1009.2
20260507180350 20 331 0.0 0.0 0.00 0.51 0.23 84 1009.1
20260507180249 20 315 0.0 0.0 0.00 0.51 0.23 83 1009.0
20260507180139 20 294 0.0 0.0 0.00 0.51 0.23 83 1008.9
20260507180038 20 273 0.0 0.0 0.00 0.51 0.23 83 1009.0
20260507175938 20 273 0.0 0.0 0.00 0.51 0.23 84 1008.9
20260507175837 20 263 0.0 0.0 0.00 0.51 0.23 85 1009.0
20260507175735 20 53 0.0 0.0 0.00 0.51 0.23 84 1009.0
20260507175631 20 53 0.0 0.0 0.00 0.51 0.23 83 1008.9
20260507175529 20 5 0.0 0.0 0.00 0.51 0.23 84 1008.8
20260507175427 20 57 0.0 0.0 0.00 0.51 0.23 83 1008.8
20260507175328 20 93 0.0 0.0 0.00 0.51 0.23 83 1008.8
20260507175228 20 94 0.0 0.0 0.00 0.51 0.23 83 1008.8
20260507175122 20 103 0.0 0.0 0.00 0.51 0.23 83 1008.8
20260507175023 20 101 0.0 0.0 0.00 0.51 0.23 83 1008.6
20260507174922 20 115 0.0 0.0 0.00 0.51 0.23 83 1008.8
20260507174823 20 103 0.0 0.0 0.00 0.51 0.23 82 1008.8
20260507174722 21 90 0.0 0.0 0.00 0.51 0.23 82 1008.8
20260507174613 21 102 0.0 0.0 0.00 0.51 0.23 82 1008.9
20260507174513 21 96 0.0 0.0 0.00 0.51 0.23 81 1008.9
20260507174414 21 92 0.0 0.0 0.00 0.51 0.23 81 1008.9
20260507174315 21 97 0.0 0.0 0.00 0.51 0.23 81 1008.9
20260507174212 21 114 0.0 0.0 0.00 0.51 0.23 81 1008.9
20260507174107 21 106 0.0 0.0 0.00 0.51 0.23 82 1009.0
20260507174007 21 89 0.0 0.0 0.00 0.51 0.23 81 1009.1
20260507173907 21 86 0.0 0.0 0.00 0.51 0.23 80 1009.1
20260507173805 21 86 0.0 0.0 0.00 0.51 0.23 80 1009.2
20260507173707 21 92 0.0 0.0 0.00 0.51 0.23 80 1009.2
20260507173559 21 154 0.0 0.0 0.00 0.51 0.23 81 1009.2
20260507173501 21 97 0.0 0.0 0.00 0.51 0.23 81 1009.1
20260507173400 21 88 0.0 0.0 0.00 0.51 0.23 81 1009.1
20260507173259 21 78 0.0 0.0 0.00 0.51 0.23 80 1009.1
20260507173201 21 80 0.0 0.0 0.00 0.51 0.23 80 1009.0
20260507173056 21 77 0.0 0.0 0.00 0.51 0.23 79 1009.1
20260507172955 21 80 0.0 0.0 0.00 0.51 0.23 79 1009.1
20260507172853 21 85 0.0 0.0 0.00 0.51 0.23 79 1009.0
20260507172752 21 92 0.0 0.0 0.00 0.51 0.23 79 1009.0
20260507172650 21 83 0.0 0.0 0.00 0.51 0.23 79 1009.1
20260507172547 21 122 0.0 0.0 0.00 0.51 0.23 80 1009.1
20260507172345 21 124 0.0 0.0 0.00 0.51 0.23 80 1009.2
20260507172244 21 124 0.0 0.0 0.00 0.51 0.23 80 1009.2
20260507172144 21 128 0.0 0.0 0.00 0.51 0.23 79 1009.3
20260507172040 21 117 0.0 0.0 0.00 0.51 0.23 80 1009.3
20260507171938 21 115 0.0 0.0 0.00 0.51 0.23 80 1009.3
20260507171838 21 121 0.0 0.0 0.00 0.51 0.23 79 1009.2
20260507171738 21 126 0.0 0.0 0.00 0.51 0.23 79 1009.3
20260507171638 21 63 0.0 0.0 0.00 0.51 0.23 80 1009.3
20260507171529 21 61 0.0 0.0 0.00 0.51 0.23 79 1009.3
20260507171430 21 61 0.0 0.0 0.00 0.51 0.23 79 1009.4
20260507171331 21 61 0.0 0.0 0.00 0.51 0.23 80 1009.4
20260507171230 21 61 0.0 0.0 0.00 0.51 0.23 80 1009.3
20260507171129 21 109 0.0 0.0 0.00 0.51 0.23 80 1009.3
20260507171025 21 74 0.0 0.0 0.00 0.53 0.23 80 1009.3
20260507170923 21 71 0.0 0.0 0.00 0.53 0.23 79 1009.2
20260507170821 21 69 0.0 0.0 0.00 0.53 0.23 78 1009.2
20260507170723 21 69 0.0 0.0 0.00 0.53 0.23 79 1009.3
20260507170622 21 59 0.0 0.0 0.00 0.53 0.23 80 1009.2
20260507170518 21 55 0.0 0.0 0.00 0.53 0.23 79 1009.4
20260507170415 21 51 0.0 0.0 0.00 0.53 0.23 78 1009.3
20260507170317 21 51 0.0 0.0 0.00 0.53 0.23 79 1009.4
20260507170215 21 51 0.0 0.0 0.00 0.53 0.23 78 1009.4
20260507170116 21 46 0.0 0.0 0.00 0.53 0.23 78 1009.4
20260507170005 21 45 0.0 0.0 0.00 0.53 0.23 79 1009.3
20260507165906 21 42 0.0 0.0 0.00 0.53 0.23 79 1009.3
20260507165807 21 277 0.0 0.0 0.00 0.56 0.23 79 1009.4
20260507165705 21 270 0.0 0.0 0.00 0.56 0.23 80 1009.4
20260507165607 21 202 0.0 0.0 0.00 0.56 0.23 81 1009.4
20260507165500 21 202 0.0 0.0 0.00 0.56 0.23 80 1009.5
20260507165401 21 202 0.0 0.0 0.00 0.56 0.23 80 1009.4
20260507165301 21 203 0.0 0.0 0.00 0.56 0.23 79 1009.4
20260507165201 21 278 0.0 0.0 0.00 0.56 0.23 79 1009.5
20260507165100 21 275 0.0 0.0 0.00 0.56 0.23 79 1009.6
20260507164957 21 252 0.0 0.0 0.00 0.56 0.23 80 1009.7
20260507164854 21 260 0.0 0.0 0.00 0.56 0.23 81 1009.6
20260507164753 21 260 0.0 0.0 0.00 0.56 0.23 80 1009.6
20260507164653 21 171 0.0 0.0 0.00 0.56 0.23 81 1009.7
20260507164555 21 171 0.0 0.0 0.00 0.56 0.23 80 1009.6
20260507164446 21 222 0.0 0.0 0.00 0.56 0.23 79 1009.5
20260507164345 21 275 0.0 0.0 0.00 0.56 0.23 79 1009.6
20260507164245 21 276 0.0 0.0 0.00 0.56 0.23 79 1009.6
20260507164144 21 310 0.0 0.0 0.00 0.56 0.23 79 1009.6
20260507164045 21 230 0.0 0.0 0.00 0.56 0.23 80 1009.6
20260507163940 21 293 0.0 0.0 0.00 0.56 0.23 79 1009.6
20260507163839 21 291 0.0 0.0 0.00 0.56 0.23 79 1009.7
20260507163738 21 312 0.0 0.0 0.00 0.56 0.23 79 1009.6
20260507163637 21 240 0.0 0.0 0.00 0.56 0.23 79 1009.7
20260507163538 21 165 0.0 0.0 0.00 0.58 0.23 79 1009.6
20260507163435 21 175 0.0 0.0 0.00 0.58 0.23 81 1009.6
20260507163331 21 134 0.0 0.0 0.00 0.58 0.23 79 1009.6
20260507163232 20 134 0.0 0.0 0.00 0.58 0.23 80 1009.7
20260507163132 20 133 0.0 0.0 0.00 0.58 0.23 80 1009.6
20260507163033 20 151 0.0 0.0 0.00 0.58 0.23 83 1009.7
20260507162923 20 148 0.0 0.0 0.00 0.58 0.23 82 1009.6
20260507162822 20 200 0.0 0.0 0.00 0.58 0.23 82 1009.6
20260507162722 20 191 0.0 0.0 0.00 0.58 0.23 83 1009.7
20260507162621 20 172 0.0 0.0 0.00 0.58 0.23 84 1009.8
20260507162523 20 179 0.0 0.0 0.00 0.58 0.23 85 1009.8
20260507162420 20 200 0.0 0.0 0.00 0.58 0.23 84 1009.9
20260507162320 20 215 0.0 0.0 0.00 0.58 0.23 83 1009.8
20260507162219 20 215 0.0 0.0 0.00 0.58 0.23 84 1009.8
20260507162119 20 230 0.0 0.0 0.00 0.58 0.23 83 1009.7
20260507162016 20 230 0.0 0.0 0.00 0.58 0.23 84 1009.7
20260507161911 20 273 0.0 0.0 0.00 0.58 0.23 85 1009.8
20260507161809 20 300 0.0 0.0 0.00 0.58 0.23 85 1009.8
20260507161707 20 36 0.0 0.0 0.00 0.58 0.23 85 1009.8
20260507161607 20 43 0.0 0.0 0.00 0.58 0.23 85 1009.8
20260507161508 20 43 0.0 0.0 0.00 0.58 0.23 85 1009.9
20260507161357 20 43 0.0 0.0 0.00 0.58 0.23 86 1009.9
20260507161258 20 44 0.0 0.0 0.00 0.58 0.23 87 1009.9
20260507161159 20 71 0.0 0.0 0.00 0.58 0.23 88 1009.9
20260507161058 20 49 0.0 0.0 0.00 0.58 0.23 88 1010.0
20260507160958 20 49 0.0 0.0 0.00 0.58 0.23 88 1010.0
20260507160856 20 61 0.0 0.0 0.00 0.58 0.23 87 1009.9
20260507160756 20 97 0.0 0.0 0.00 0.58 0.23 86 1010.0
20260507160653 20 103 0.0 0.0 0.00 0.58 0.23 84 1009.9
20260507160555 20 167 0.0 0.0 0.00 0.58 0.23 84 1009.9
20260507160452 20 167 0.0 0.0 0.00 0.58 0.23 84 1009.8
20260507160352 19 168 0.0 0.0 0.00 0.58 0.23 84 1009.8
20260507160249 19 169 0.0 0.0 0.00 0.58 0.23 83 1009.8
20260507160151 19 169 0.0 0.0 0.00 0.58 0.23 82 1009.9
20260507160049 19 246 0.0 0.0 0.00 0.58 0.23 82 1009.9
20260507155951 19 283 0.0 0.0 0.00 0.58 0.23 81 1009.9
20260507155850 19 283 0.0 0.0 0.00 0.58 0.23 82 1009.9
20260507155747 19 284 0.0 0.0 0.00 0.58 0.23 82 1009.7
20260507155647 20 284 0.0 0.0 0.00 0.58 0.23 83 1009.6
20260507155546 20 284 0.0 0.0 0.00 0.58 0.23 84 1009.7
20260507155445 20 289 0.0 0.0 0.00 0.58 0.23 85 1009.5
20260507155347 20 9 0.0 0.0 0.00 0.58 0.23 84 1009.5
20260507155246 20 0 0.0 0.0 0.00 0.58 0.23 85 1009.5
20260507155147 20 355 0.0 0.0 0.00 0.58 0.23 85 1009.5
20260507155047 20 355 0.0 0.0 0.00 0.58 0.23 84 1009.6
20260507154946 20 290 0.0 0.0 0.00 0.58 0.23 84 1009.6
20260507154844 20 304 0.0 0.0 0.00 0.58 0.23 84 1009.7
20260507154743 20 114 0.0 0.0 0.00 0.58 0.23 84 1009.8
20260507154645 20 113 0.0 0.0 0.00 0.58 0.23 86 1009.8
20260507154544 20 104 0.0 0.0 0.00 0.58 0.23 87 1009.8
20260507154441 20 102 0.0 0.0 0.00 0.58 0.23 86 1009.8
20260507154343 19 102 0.0 0.0 0.00 0.58 0.23 86 1009.7
20260507154242 19 98 0.0 0.0 0.00 0.58 0.23 87 1009.7
20260507154141 19 100 0.0 0.0 0.00 0.58 0.23 87 1009.7
20260507154041 19 99 0.0 0.0 0.00 0.58 0.23 87 1009.7
20260507153943 19 94 0.0 0.0 0.00 0.58 0.23 87 1009.6
20260507153842 19 126 0.0 0.0 0.00 0.58 0.23 86 1009.6
20260507153741 19 125 0.0 0.0 0.00 0.58 0.23 86 1009.7
20260507153641 19 126 0.0 0.0 0.00 0.58 0.23 86 1009.8
20260507153543 19 126 0.0 0.0 0.00 0.58 0.23 86 1009.7
20260507153444 19 171 0.0 0.0 0.00 0.58 0.23 88 1009.7
20260507153343 19 150 0.0 0.0 0.00 0.58 0.23 87 1009.7
20260507153238 19 171 0.0 0.0 0.00 0.58 0.23 88 1009.7
20260507153137 19 171 0.0 0.0 0.00 0.58 0.23 88 1009.7
20260507153039 19 171 0.0 0.0 0.00 0.58 0.23 88 1009.7
20260507152936 19 171 0.0 0.0 0.00 0.58 0.23 88 1009.7
20260507152835 19 184 0.0 0.0 0.00 0.58 0.23 89 1009.8
20260507152737 18 180 0.0 0.0 0.00 0.58 0.23 89 1009.8
20260507152636 18 172 0.0 0.0 0.00 0.58 0.23 89 1009.9
20260507152535 18 171 0.0 0.0 0.00 0.58 0.23 90 1009.9
20260507152436 18 171 0.0 0.0 0.00 0.58 0.23 90 1010.0
20260507152336 18 171 0.0 0.0 0.00 0.58 0.23 90 1010.0
20260507152236 18 110 0.0 0.0 0.00 0.58 0.23 90 1010.0
20260507152136 18 109 0.0 0.0 0.00 0.58 0.23 90 1010.0
20260507152035 18 123 0.0 0.0 0.00 0.58 0.23 90 1010.1
20260507151935 18 153 0.0 0.0 0.00 0.58 0.23 90 1010.0
20260507151835 18 161 0.0 0.0 0.00 0.58 0.23 91 1010.2
20260507151736 18 158 0.0 0.0 0.00 0.58 0.23 91 1010.2
20260507151637 18 165 0.0 0.0 0.00 0.58 0.23 91 1010.1
20260507151535 18 165 0.0 0.0 0.00 0.58 0.23 92 1010.1
20260507151436 18 113 0.0 0.0 0.00 0.58 0.23 92 1010.1
20260507151328 18 154 0.0 0.0 0.00 0.58 0.23 92 1010.1
20260507151228 18 155 0.0 0.0 0.00 0.58 0.23 92 1010.1
20260507151127 18 159 0.0 0.0 0.00 0.58 0.23 93 1010.2
20260507151028 18 157 0.0 0.0 0.00 0.58 0.23 93 1010.1
20260507150929 18 159 0.0 0.0 0.00 0.58 0.23 93 1010.0
20260507150828 18 175 0.0 0.0 0.00 0.58 0.23 94 1010.1
20260507150728 18 183 0.0 0.0 0.00 0.58 0.23 94 1010.1
20260507150627 18 182 0.0 0.0 0.00 0.58 0.23 94 1010.0
20260507150527 17 180 0.0 0.0 0.00 0.58 0.23 94 1010.0
20260507150427 17 128 0.0 0.0 0.00 0.58 0.23 94 1010.0
20260507150328 17 128 0.0 0.0 0.00 0.58 0.23 94 1009.9
20260507150227 17 110 0.0 0.0 0.00 0.58 0.23 94 1009.9
20260507150127 17 48 0.0 0.0 0.00 0.58 0.23 94 1010.0
20260507150028 17 48 0.0 0.0 0.00 0.58 0.23 94 1010.0
20260507145928 17 26 0.0 0.0 0.00 0.58 0.23 94 1010.0
20260507145828 17 86 0.0 0.0 0.00 0.58 0.23 94 1010.0
20260507145727 17 97 0.0 0.0 0.00 0.58 0.23 94 1010.0
20260507145627 17 97 0.0 0.0 0.00 0.58 0.23 94 1010.0
20260507145527 17 97 0.0 0.0 0.00 0.58 0.23 94 1010.0
20260507145427 17 132 0.0 0.0 0.00 0.58 0.23 94 1010.1
20260507145329 17 207 0.0 3.2 0.00 0.58 0.23 94 1010.1
20260507145228 17 298 0.0 4.8 0.00 0.58 0.23 94 1010.1
20260507145128 17 300 0.0 4.8 0.00 0.58 0.23 95 1010.1
20260507145027 17 273 0.0 4.8 0.00 0.58 0.23 95 1010.1
20260507144928 17 272 1.6 4.8 0.00 0.58 0.23 95 1010.1
20260507144829 17 266 1.6 6.4 0.00 0.58 0.23 95 1010.2
20260507144728 17 266 1.6 6.4 0.00 0.58 0.23 95 1010.1
20260507144628 17 268 1.6 6.4 0.00 0.58 0.23 95 1010.2
20260507144527 17 269 1.6 6.4 0.00 0.58 0.23 95 1010.2
20260507144428 16 269 1.6 6.4 0.00 0.58 0.23 95 1010.2
20260507144329 16 271 1.6 6.4 0.00 0.58 0.23 95 1010.2
20260507144227 16 271 1.6 6.4 0.00 0.58 0.23 95 1010.2
20260507144128 16 271 1.6 6.4 0.00 0.58 0.23 95 1010.4
20260507144024 16 297 1.6 9.7 0.00 0.58 0.23 95 1010.2
20260507143923 16 297 1.6 9.7 0.00 0.58 0.23 95 1010.4
20260507143824 16 316 1.6 9.7 0.00 0.58 0.23 95 1010.2
20260507143723 16 287 1.6 9.7 0.00 0.58 0.23 95 1010.2
20260507143623 16 287 1.6 9.7 0.00 0.58 0.23 95 1010.2
20260507143523 16 289 1.6 9.7 0.00 0.58 0.23 95 1010.2
20260507143423 16 292 1.6 9.7 0.00 0.58 0.23 95 1010.4
20260507143323 16 284 1.6 9.7 0.00 0.58 0.23 95 1010.4
20260507143224 16 284 1.6 9.7 0.00 0.58 0.23 95 1010.4
20260507143123 16 284 1.6 9.7 0.00 0.58 0.23 95 1010.4
20260507143024 16 231 1.6 8.0 0.00 0.58 0.23 95 1010.4
20260507142923 16 234 1.6 8.0 0.00 0.58 0.23 95 1010.2
20260507142824 16 232 1.6 8.0 0.00 0.58 0.23 95 1010.4
20260507142724 16 232 1.6 8.0 0.00 0.58 0.23 95 1010.4
20260507142623 16 208 1.6 8.0 0.00 0.58 0.23 95 1010.2
20260507142523 16 216 1.6 8.0 0.00 0.58 0.23 95 1010.4
20260507142424 16 100 1.6 8.0 0.00 0.58 0.23 95 1010.5
20260507142323 16 38 1.6 8.0 0.00 0.58 0.23 95 1010.5
20260507142223 16 15 1.6 8.0 0.00 0.58 0.23 95 1010.5
20260507142123 16 0 1.6 6.4 0.00 0.58 0.23 95 1010.2
20260507142023 16 5 1.6 6.4 0.00 0.58 0.23 95 1010.4
20260507141924 16 5 3.2 6.4 0.00 0.58 0.23 95 1010.4
20260507141823 16 5 1.6 6.4 0.00 0.58 0.23 95 1010.4
20260507141723 16 5 1.6 6.4 0.00 0.58 0.23 95 1010.5
20260507141624 16 348 1.6 6.4 0.00 0.58 0.23 95 1010.4
20260507141525 16 349 1.6 6.4 0.00 0.58 0.23 95 1010.5
20260507141423 16 350 3.2 6.4 0.00 0.58 0.23 95 1010.4
20260507141324 16 350 3.2 6.4 0.00 0.58 0.23 95 1010.5
20260507141224 16 347 3.2 6.4 0.00 0.58 0.23 95 1010.4
20260507141125 16 273 1.6 6.4 0.00 0.58 0.23 95 1010.4
20260507141024 16 321 1.6 6.4 0.00 0.58 0.23 95 1010.5
20260507140924 16 264 1.6 6.4 0.00 0.58 0.23 95 1010.5
20260507140825 16 192 1.6 4.8 0.00 0.58 0.23 95 1010.5
20260507140719 16 238 1.6 4.8 0.00 0.58 0.23 95 1010.5
20260507140620 16 238 1.6 4.8 0.00 0.58 0.23 95 1010.4
20260507140520 16 238 1.6 4.8 0.00 0.58 0.23 95 1010.2
20260507140420 16 259 1.6 4.8 0.00 0.58 0.23 95 1010.1
20260507140320 16 249 1.6 3.2 0.00 0.58 0.23 95 1010.2
20260507140219 16 246 1.6 3.2 0.00 0.58 0.23 95 1010.2
20260507140120 16 240 1.6 3.2 0.00 0.58 0.23 95 1010.1
20260507140020 16 240 1.6 3.2 0.00 0.58 0.23 95 1010.2
20260507135920 16 240 1.6 3.2 0.00 0.58 0.23 95 1010.0
20260507135821 16 239 1.6 3.2 0.00 0.58 0.23 95 1010.0
20260507135719 16 239 1.6 3.2 0.00 0.58 0.23 95 1010.0
20260507135620 16 239 1.6 3.2 0.00 0.58 0.23 95 1009.9
20260507135520 16 239 1.6 4.8 0.00 0.58 0.23 95 1010.0
20260507135420 16 242 1.6 4.8 0.00 0.58 0.23 95 1010.1
20260507135319 16 244 1.6 4.8 0.00 0.58 0.23 95 1010.0
20260507135221 16 246 1.6 4.8 0.00 0.58 0.23 95 1009.9
20260507135119 16 246 1.6 4.8 0.00 0.58 0.23 95 1010.1
20260507135019 16 246 1.6 4.8 0.00 0.58 0.23 96 1010.1
20260507134919 16 246 1.6 4.8 0.00 0.58 0.23 96 1010.1
20260507134821 16 246 1.6 4.8 0.00 0.58 0.23 95 1010.2
20260507134721 16 246 1.6 4.8 0.00 0.58 0.23 96 1010.1
20260507134620 16 246 1.6 4.8 0.00 0.58 0.23 96 1010.2
20260507134519 16 246 1.6 4.8 0.00 0.58 0.23 96 1010.2
20260507134420 16 245 1.6 4.8 0.00 0.58 0.23 96 1010.1
20260507134320 16 245 1.6 4.8 0.00 0.58 0.23 96 1010.1
20260507134220 16 169 1.6 4.8 0.00 0.58 0.23 96 1010.1
20260507134120 16 161 0.0 4.8 0.00 0.58 0.23 96 1010.1
20260507134020 16 174 0.0 4.8 0.00 0.58 0.23 96 1010.1
20260507133920 16 117 1.6 4.8 0.00 0.58 0.23 96 1010.1
20260507133819 16 117 1.6 4.8 0.00 0.58 0.23 96 1010.0
20260507133720 16 114 0.0 4.8 0.03 0.58 0.23 96 1010.0
20260507133621 16 114 1.6 4.8 0.03 0.58 0.23 96 1010.0
20260507133521 16 114 1.6 4.8 0.03 0.58 0.23 96 1010.1
20260507133416 16 114 1.6 6.4 0.03 0.58 0.23 96 1010.1
20260507133316 16 114 1.6 6.4 0.03 0.58 0.23 96 1010.1
20260507133216 16 114 1.6 6.4 0.03 0.58 0.23 96 1010.1
20260507133114 16 114 1.6 6.4 0.03 0.58 0.23 96 1010.0
20260507133011 16 121 1.6 6.4 0.03 0.58 0.23 96 1009.9
20260507132910 16 121 1.6 6.4 0.03 0.58 0.23 96 1009.9
20260507132809 16 157 1.6 6.4 0.03 0.58 0.23 96 1009.9
20260507132710 16 170 1.6 6.4 0.03 0.58 0.23 96 1010.0
20260507132606 16 171 1.6 6.4 0.03 0.58 0.23 96 1010.1
20260507132506 16 171 1.6 6.4 0.03 0.58 0.23 96 1010.1
20260507132358 16 161 1.6 6.4 0.03 0.58 0.23 96 1010.0
20260507132258 16 161 1.6 6.4 0.03 0.58 0.23 96 1010.1
20260507132158 16 125 1.6 4.8 0.03 0.58 0.23 96 1010.1
20260507132056 16 125 1.6 4.8 0.03 0.58 0.23 96 1010.2
20260507131954 16 125 1.6 4.8 0.03 0.58 0.23 96 1010.2
20260507131849 16 118 0.0 4.8 0.05 0.58 0.23 96 1010.4
20260507131748 16 122 0.0 4.8 0.05 0.58 0.23 96 1010.4
20260507131647 16 123 0.0 6.4 0.05 0.58 0.23 96 1010.2
20260507131549 16 121 1.6 6.4 0.05 0.58 0.23 96 1010.4
20260507131445 16 124 1.6 8.0 0.05 0.58 0.23 96 1010.2
20260507131346 16 124 1.6 8.0 0.05 0.58 0.23 96 1010.2
20260507131243 16 180 1.6 8.0 0.05 0.58 0.23 96 1010.2
20260507131143 16 163 1.6 8.0 0.05 0.58 0.23 96 1010.4
20260507131042 16 163 1.6 8.0 0.05 0.58 0.23 96 1010.2
20260507130835 16 163 1.6 8.0 0.08 0.58 0.23 96 1010.1
20260507130733 16 162 1.6 8.0 0.08 0.58 0.23 96 1010.0
20260507130631 16 162 1.6 8.0 0.08 0.58 0.23 96 1010.0
20260507130532 16 162 0.0 8.0 0.08 0.58 0.23 96 1009.8
20260507130430 16 132 0.0 3.2 0.08 0.58 0.23 96 1009.9
20260507130327 16 132 0.0 3.2 0.08 0.58 0.23 96 1009.9
20260507130228 16 132 0.0 3.2 0.08 0.58 0.23 96 1009.9
20260507130125 15 132 1.6 3.2 0.08 0.58 0.23 96 1010.0
20260507130027 15 132 1.6 3.2 0.08 0.58 0.23 96 1010.0
20260507125924 15 127 1.6 3.2 0.10 0.58 0.23 96 1009.8
20260507125824 15 138 1.6 3.2 0.10 0.58 0.23 96 1009.9
20260507125722 15 138 1.6 3.2 0.10 0.58 0.23 96 1009.9
20260507125623 15 131 1.6 3.2 0.10 0.58 0.23 96 1009.8
20260507125519 15 132 1.6 3.2 0.10 0.58 0.23 96 1009.7
20260507125418 15 132 1.6 3.2 0.10 0.58 0.23 96 1009.7
20260507125309 15 132 1.6 3.2 0.10 0.58 0.23 96 1009.9
20260507125207 15 132 1.6 3.2 0.10 0.58 0.23 96 1010.0
20260507125107 15 132 1.6 3.2 0.10 0.58 0.23 96 1010.2
20260507125006 15 132 1.6 3.2 0.10 0.58 0.23 96 1010.2
20260507124905 15 126 1.6 3.2 0.10 0.58 0.23 96 1010.4
20260507124803 15 126 1.6 3.2 0.10 0.58 0.23 96 1010.5
20260507124704 15 126 1.6 3.2 0.10 0.58 0.23 96 1010.5
20260507124602 15 126 1.6 3.2 0.10 0.58 0.23 96 1010.5
20260507124502 15 126 0.0 3.2 0.10 0.58 0.23 96 1010.7
20260507124359 15 126 0.0 3.2 0.10 0.58 0.23 96 1010.7
20260507124256 15 128 0.0 3.2 0.10 0.58 0.23 96 1010.6
20260507124155 15 128 0.0 3.2 0.10 0.58 0.23 96 1010.8
20260507124053 15 128 0.0 4.8 0.10 0.58 0.23 96 1010.7
20260507123954 15 128 0.0 4.8 0.10 0.58 0.23 96 1010.6
20260507123851 15 351 1.6 4.8 0.10 0.58 0.23 96 1010.6
20260507123748 15 351 1.6 4.8 0.10 0.58 0.23 96 1010.7
20260507123646 15 351 1.6 6.4 0.08 0.56 0.23 96 1010.6
20260507123543 15 351 1.6 6.4 0.08 0.56 0.20 96 1010.6
20260507123445 15 351 1.6 6.4 0.08 0.56 0.20 96 1010.5
20260507123341 15 351 3.2 8.0 0.08 0.56 0.20 96 1010.5
20260507123236 15 319 3.2 8.0 0.08 0.56 0.20 96 1010.5
20260507123137 15 325 3.2 8.0 0.08 0.56 0.20 96 1010.5
20260507123037 15 286 3.2 8.0 0.08 0.56 0.20 96 1010.5
20260507122939 15 305 3.2 8.0 0.08 0.56 0.20 96 1010.6
20260507122835 15 171 3.2 8.0 0.10 0.56 0.20 96 1010.5
20260507122737 15 171 3.2 8.0 0.10 0.56 0.20 96 1010.6
20260507122634 15 171 3.2 8.0 0.10 0.56 0.20 96 1010.6
20260507122531 15 171 3.2 8.0 0.10 0.56 0.20 96 1010.6
20260507122433 15 172 3.2 8.0 0.10 0.56 0.20 96 1010.6
20260507122330 15 162 3.2 8.0 0.10 0.56 0.20 96 1010.6
20260507122219 15 162 3.2 8.0 0.10 0.56 0.20 96 1010.6
20260507122118 15 157 3.2 8.0 0.10 0.56 0.20 96 1010.7
20260507122020 15 155 3.2 8.0 0.10 0.56 0.20 96 1010.8
20260507121919 15 155 3.2 8.0 0.10 0.56 0.20 96 1010.8
20260507121819 15 154 3.2 8.0 0.08 0.53 0.20 96 1010.9
20260507121718 15 153 3.2 8.0 0.08 0.53 0.18 96 1010.8
20260507121616 15 124 3.2 6.4 0.08 0.53 0.18 96 1010.9
20260507121515 15 123 3.2 6.4 0.08 0.53 0.18 96 1011.0
20260507121414 15 123 3.2 9.7 0.10 0.53 0.18 96 1011.0
20260507121312 15 110 3.2 9.7 0.10 0.53 0.18 96 1011.0
20260507121207 15 149 3.2 9.7 0.10 0.53 0.18 96 1011.1
20260507121108 15 151 3.2 9.7 0.10 0.53 0.18 96 1011.2
20260507121007 15 151 3.2 9.7 0.08 0.51 0.15 96 1011.2
20260507120908 15 165 3.2 9.7 0.08 0.51 0.15 96 1011.3
20260507120805 15 192 1.6 9.7 0.08 0.51 0.15 96 1011.3
20260507120659 15 193 1.6 9.7 0.08 0.51 0.15 96 1011.3
20260507120559 15 188 1.6 9.7 0.08 0.51 0.15 96 1011.4
20260507120500 15 140 3.2 9.7 0.08 0.51 0.15 96 1011.5
20260507120358 15 135 3.2 16.1 0.08 0.51 0.15 96 1011.6
20260507120256 15 178 3.2 16.1 0.08 0.51 0.15 96 1011.6
20260507120150 15 162 3.2 16.1 0.08 0.51 0.15 96 1011.6
20260507120051 15 161 3.2 16.1 0.10 0.51 0.15 96 1011.7
20260507115951 15 169 3.2 16.1 0.08 0.48 0.15 96 1011.6
20260507115851 15 115 1.6 16.1 0.08 0.48 0.13 96 1011.6
20260507115750 15 164 1.6 16.1 0.08 0.48 0.13 96 1011.6
20260507115645 15 179 1.6 16.1 0.08 0.48 0.13 96 1011.6
20260507115545 15 177 1.6 16.1 0.08 0.48 0.13 96 1011.5
20260507115446 15 162 1.6 16.1 0.08 0.48 0.13 96 1011.4
20260507115346 15 198 1.6 8.0 0.08 0.48 0.13 96 1011.6
20260507115243 15 165 1.6 6.4 0.08 0.48 0.13 96 1011.5
20260507115133 15 123 0.0 3.2 0.08 0.48 0.13 96 1011.4
20260507115033 15 123 1.6 3.2 0.08 0.48 0.13 96 1011.4
20260507114934 15 123 0.0 3.2 0.08 0.48 0.13 96 1011.4
20260507114834 15 123 1.6 3.2 0.08 0.48 0.13 96 1011.3
20260507114731 15 123 1.6 3.2 0.08 0.48 0.13 96 1011.3
20260507114632 15 123 1.6 3.2 0.08 0.48 0.13 96 1011.2
20260507114529 15 123 1.6 3.2 0.08 0.48 0.13 96 1011.1
20260507114430 15 123 1.6 6.4 0.08 0.48 0.13 96 1011.1
20260507114328 15 186 1.6 6.4 0.08 0.48 0.13 96 1011.1
20260507114226 15 186 1.6 6.4 0.08 0.48 0.13 96 1011.1
20260507114120 15 176 1.6 6.4 0.08 0.48 0.13 96 1011.0
20260507114019 15 179 1.6 6.4 0.08 0.48 0.13 96 1011.0
20260507113920 15 188 3.2 8.0 0.08 0.48 0.13 96 1011.0
20260507113819 15 184 3.2 8.0 0.08 0.48 0.13 96 1010.9
20260507113719 15 169 3.2 8.0 0.08 0.48 0.13 96 1010.8
20260507113613 15 169 3.2 8.0 0.08 0.48 0.13 96 1010.8
20260507113514 15 172 3.2 8.0 0.08 0.48 0.13 96 1010.9
20260507113413 15 184 3.2 8.0 0.08 0.48 0.13 96 1010.8
20260507113311 15 184 3.2 8.0 0.08 0.48 0.13 96 1010.8
20260507113210 15 180 3.2 8.0 0.08 0.48 0.13 96 1010.7
20260507113104 15 169 3.2 8.0 0.08 0.48 0.13 96 1010.7
20260507113005 15 166 3.2 8.0 0.08 0.48 0.13 96 1010.6
20260507112903 15 160 3.2 8.0 0.08 0.48 0.13 96 1010.6
20260507112805 15 160 3.2 8.0 0.05 0.46 0.10 96 1010.6
20260507112703 15 156 3.2 8.0 0.05 0.46 0.10 96 1010.7
20260507112559 15 153 3.2 8.0 0.05 0.46 0.10 96 1010.7
20260507112459 15 153 3.2 8.0 0.05 0.46 0.10 96 1010.7
20260507112359 15 134 3.2 8.0 0.05 0.46 0.10 96 1010.8
20260507112300 15 134 3.2 8.0 0.05 0.46 0.10 96 1010.8
20260507112158 15 169 3.2 8.0 0.05 0.46 0.10 96 1010.9
20260507112049 15 148 3.2 8.0 0.05 0.46 0.10 96 1010.9
20260507111951 15 170 3.2 8.0 0.05 0.46 0.10 96 1010.9
20260507111850 15 170 1.6 8.0 0.05 0.46 0.10 96 1011.0
20260507111750 15 164 1.6 6.4 0.05 0.46 0.10 96 1011.0
20260507111648 15 144 1.6 4.8 0.05 0.46 0.10 96 1011.2
20260507111540 15 212 1.6 4.8 0.05 0.46 0.10 96 1011.1
20260507111441 15 207 1.6 4.8 0.05 0.46 0.10 96 1011.1
20260507111341 15 208 1.6 4.8 0.03 0.43 0.10 96 1011.1
20260507111240 15 212 1.6 4.8 0.03 0.43 0.08 96 1011.0
20260507111141 15 213 1.6 4.8 0.03 0.43 0.08 96 1011.1
20260507111041 15 214 1.6 4.8 0.03 0.43 0.08 96 1011.0
20260507110939 15 214 1.6 4.8 0.03 0.43 0.08 96 1011.0
20260507110838 15 238 1.6 4.8 0.03 0.43 0.08 96 1011.0
20260507110738 15 252 1.6 4.8 0.03 0.43 0.08 96 1011.0
20260507110636 15 261 1.6 4.8 0.03 0.43 0.08 96 1011.0
20260507110527 15 261 1.6 4.8 0.03 0.43 0.08 96 1010.9
20260507110426 15 279 1.6 4.8 0.03 0.43 0.08 96 1010.9
20260507110325 15 82 1.6 3.2 0.03 0.43 0.08 96 1010.9
20260507110226 15 99 1.6 3.2 0.03 0.43 0.08 96 1010.9
20260507110125 15 98 1.6 3.2 0.00 0.41 0.08 96 1010.8
20260507110020 15 118 1.6 3.2 0.00 0.41 0.05 96 1010.7
20260507105920 15 118 1.6 3.2 0.00 0.41 0.05 96 1010.6
20260507105819 15 117 0.0 3.2 0.00 0.41 0.05 96 1010.7
20260507105718 15 117 0.0 3.2 0.00 0.41 0.05 96 1010.6
20260507105619 15 343 0.0 3.2 0.00 0.41 0.05 96 1010.6
20260507105519 15 342 0.0 3.2 0.00 0.41 0.05 96 1010.5
20260507105417 15 343 0.0 3.2 0.00 0.41 0.05 96 1010.4
20260507105317 15 343 0.0 3.2 0.00 0.41 0.05 96 1010.5
20260507105215 15 343 0.0 3.2 0.00 0.41 0.05 96 1010.4
20260507105113 15 343 0.0 3.2 0.00 0.41 0.05 96 1010.4
20260507105004 15 343 0.0 3.2 0.00 0.41 0.05 96 1010.4
20260507104903 15 343 0.0 3.2 0.00 0.41 0.05 96 1010.2
20260507104804 15 343 0.0 3.2 0.00 0.41 0.05 96 1010.4
20260507104703 15 290 0.0 3.2 0.00 0.41 0.05 96 1010.4
20260507104603 15 279 0.0 3.2 0.00 0.41 0.05 96 1010.4
20260507104501 15 134 0.0 3.2 0.00 0.41 0.05 96 1010.2
20260507104401 15 135 0.0 3.2 0.00 0.41 0.05 96 1010.4
20260507104302 15 137 0.0 3.2 0.00 0.41 0.05 96 1010.2
20260507104159 15 137 1.6 4.8 0.00 0.41 0.05 96 1010.4
20260507104058 15 137 1.6 4.8 0.00 0.41 0.05 96 1010.2
20260507103957 15 137 1.6 4.8 0.00 0.41 0.05 96 1010.2
20260507103856 15 137 1.6 4.8 0.00 0.41 0.05 96 1010.2
20260507103753 15 137 1.6 4.8 0.00 0.41 0.05 96 1010.1
20260507103654 15 137 1.6 4.8 0.00 0.41 0.05 96 1010.1
20260507103551 15 137 1.6 4.8 0.00 0.41 0.05 96 1010.1
20260507103443 15 110 1.6 4.8 0.00 0.41 0.05 96 1010.0
20260507103342 15 110 1.6 4.8 0.00 0.41 0.05 96 1010.0
20260507103242 15 111 0.0 4.8 0.00 0.41 0.05 96 1010.0
20260507103142 15 111 0.0 4.8 0.00 0.41 0.05 96 1010.1
20260507103042 15 111 0.0 4.8 0.00 0.41 0.05 96 1010.2
20260507102941 15 111 1.6 4.8 0.00 0.41 0.05 96 1010.2
20260507102840 15 111 1.6 4.8 0.00 0.41 0.05 96 1010.2
20260507102740 15 111 1.6 4.8 0.00 0.41 0.05 96 1010.2
20260507102638 15 113 1.6 4.8 0.00 0.41 0.05 96 1010.1
20260507102536 15 113 1.6 4.8 0.00 0.41 0.05 96 1010.0
20260507102429 15 138 0.0 4.8 0.00 0.41 0.05 96 1010.0
20260507102329 15 138 1.6 4.8 0.00 0.41 0.05 96 1009.9
20260507102230 15 138 1.6 4.8 0.00 0.41 0.05 96 1009.9
20260507102129 15 138 0.0 4.8 0.00 0.41 0.05 96 1009.9
20260507102031 15 138 0.0 4.8 0.00 0.41 0.05 96 1010.1
20260507101920 15 138 0.0 3.2 0.00 0.41 0.05 96 1010.2
20260507101820 15 220 0.0 3.2 0.00 0.41 0.05 96 1010.2
20260507101719 15 242 0.0 3.2 0.00 0.41 0.05 96 1010.4
20260507101619 15 242 0.0 3.2 0.00 0.41 0.05 96 1010.2
20260507101520 15 243 0.0 3.2 0.00 0.41 0.05 96 1010.2
20260507101416 15 243 0.0 3.2 0.00 0.41 0.05 96 1010.2
20260507101315 15 242 0.0 4.8 0.00 0.41 0.05 96 1010.5
20260507101216 15 243 0.0 4.8 0.00 0.41 0.05 96 1010.4
20260507101116 15 242 0.0 4.8 0.00 0.41 0.05 96 1010.4
20260507101014 15 242 0.0 4.8 0.00 0.41 0.05 96 1010.2
20260507100913 15 242 0.0 4.8 0.00 0.41 0.05 96 1010.5
20260507100812 15 242 0.0 4.8 0.00 0.41 0.05 96 1010.4
20260507100711 15 242 0.0 4.8 0.00 0.41 0.05 96 1010.2
20260507100610 15 242 0.0 4.8 0.00 0.41 0.05 96 1010.2
20260507100508 15 242 0.0 4.8 0.00 0.41 0.05 96 1010.4
20260507100400 15 242 0.0 4.8 0.00 0.41 0.05 96 1010.4
20260507100259 15 205 0.0 3.2 0.00 0.41 0.05 96 1010.6
20260507100158 15 205 0.0 3.2 0.00 0.41 0.05 96 1010.6
20260507100100 15 205 1.6 4.8 0.00 0.41 0.05 96 1010.6
20260507095957 15 205 1.6 4.8 0.00 0.41 0.05 96 1010.5
20260507095852 15 205 1.6 4.8 0.00 0.41 0.05 96 1010.4
20260507095752 15 205 1.6 4.8 0.00 0.41 0.05 96 1010.5
20260507095651 15 205 1.6 4.8 0.00 0.41 0.05 96 1010.2
20260507095551 15 205 1.6 4.8 0.00 0.41 0.05 96 1010.2
20260507095451 15 205 1.6 4.8 0.00 0.41 0.05 96 1010.1
20260507095351 15 205 1.6 4.8 0.00 0.41 0.05 96 1010.1
20260507095250 15 205 1.6 4.8 0.00 0.41 0.05 96 1010.1
20260507095148 15 205 0.0 4.8 0.00 0.41 0.05 96 1010.1
20260507095048 15 205 0.0 4.8 0.00 0.41 0.05 96 1010.0
20260507094945 15 181 0.0 4.8 0.00 0.41 0.05 96 1010.1
20260507094840 15 181 0.0 3.2 0.00 0.41 0.05 96 1010.0
20260507094740 15 207 0.0 3.2 0.00 0.41 0.05 96 1010.1
20260507094640 15 207 0.0 3.2 0.00 0.41 0.05 96 1010.1
20260507094538 15 207 0.0 3.2 0.00 0.41 0.05 96 1010.1
20260507094435 15 207 0.0 3.2 0.00 0.41 0.05 96 1010.1
20260507094336 15 207 0.0 1.6 0.00 0.41 0.05 96 1010.1
20260507094234 15 207 0.0 4.8 0.00 0.41 0.05 96 1010.1
20260507094134 15 207 0.0 4.8 0.00 0.41 0.05 96 1010.1
20260507094032 15 207 1.6 4.8 0.00 0.41 0.05 96 1010.1
20260507093930 15 207 1.6 4.8 0.00 0.41 0.05 96 1010.1
20260507093827 15 207 1.6 4.8 0.00 0.41 0.05 96 1010.1
20260507093723 15 207 1.6 4.8 0.00 0.41 0.05 96 1010.0
20260507093623 15 207 1.6 4.8 0.00 0.41 0.05 96 1010.2
20260507093525 15 207 1.6 4.8 0.00 0.41 0.05 96 1010.2
20260507093424 15 167 1.6 4.8 0.00 0.41 0.05 96 1010.2
20260507093319 15 167 1.6 4.8 0.00 0.41 0.05 96 1010.2
20260507093217 15 167 0.0 4.8 0.00 0.41 0.05 96 1010.4
20260507093118 15 167 0.0 4.8 0.00 0.41 0.05 96 1010.4
20260507093016 15 167 0.0 1.6 0.00 0.41 0.05 96 1010.5
20260507092914 15 167 0.0 1.6 0.00 0.41 0.05 96 1010.5
20260507092811 15 167 0.0 1.6 0.00 0.41 0.05 96 1010.6
20260507092712 15 167 0.0 3.2 0.00 0.41 0.05 96 1010.6
20260507092611 15 169 0.0 3.2 0.00 0.41 0.05 96 1010.5
20260507092510 15 169 0.0 3.2 0.00 0.41 0.05 96 1010.6
20260507092408 15 169 0.0 3.2 0.00 0.41 0.05 96 1010.6
20260507092306 15 169 1.6 3.2 0.00 0.41 0.05 96 1010.5
20260507092201 15 169 1.6 3.2 0.00 0.41 0.05 96 1010.6
20260507092100 15 169 1.6 3.2 0.00 0.41 0.05 96 1010.5
20260507092001 15 169 1.6 3.2 0.00 0.41 0.05 96 1010.2
20260507091902 15 170 1.6 3.2 0.00 0.41 0.05 96 1010.4
20260507091752 15 170 1.6 3.2 0.00 0.41 0.05 96 1010.4
20260507091652 15 171 1.6 3.2 0.00 0.41 0.05 96 1010.5
20260507091551 15 171 1.6 4.8 0.00 0.41 0.05 96 1010.4
20260507091450 15 171 1.6 4.8 0.00 0.41 0.05 96 1010.2
20260507091351 15 220 1.6 4.8 0.00 0.41 0.05 96 1010.4
20260507091248 15 222 1.6 4.8 0.00 0.41 0.05 96 1010.4
20260507091146 15 207 1.6 6.4 0.00 0.41 0.05 96 1010.4
20260507091045 15 159 1.6 8.0 0.00 0.41 0.05 96 1010.2
20260507090944 15 159 3.2 8.0 0.00 0.41 0.05 96 1010.4
20260507090846 15 159 3.2 8.0 0.00 0.41 0.05 96 1010.2
20260507090742 15 159 3.2 9.7 0.00 0.41 0.05 96 1010.2
20260507090639 15 157 3.2 9.7 0.00 0.41 0.05 96 1010.1
20260507090540 15 155 3.2 9.7 0.00 0.41 0.05 96 1010.1
20260507090440 15 155 3.2 9.7 0.00 0.41 0.05 96 1010.1
20260507090339 15 155 3.2 9.7 0.00 0.41 0.05 96 1010.1
20260507090236 15 156 3.2 9.7 0.00 0.41 0.05 96 1010.2
20260507090132 15 161 3.2 9.7 0.00 0.41 0.05 96 1010.4
20260507090033 15 157 3.2 9.7 0.00 0.41 0.05 96 1010.4
20260507085932 15 169 3.2 9.7 0.00 0.41 0.05 96 1010.5
20260507085829 15 169 3.2 9.7 0.00 0.41 0.05 96 1010.4
20260507085726 15 191 3.2 8.0 0.00 0.41 0.05 96 1010.5
20260507085628 15 175 3.2 8.0 0.00 0.41 0.05 96 1010.2
20260507085527 15 165 1.6 8.0 0.00 0.41 0.05 96 1010.4
20260507085427 15 111 1.6 8.0 0.00 0.41 0.05 96 1010.4
20260507085327 15 107 1.6 8.0 0.00 0.41 0.05 96 1010.4
20260507085216 15 98 1.6 8.0 0.00 0.41 0.05 96 1010.4
20260507085113 15 167 1.6 8.0 0.00 0.41 0.05 96 1010.2
20260507085014 15 169 1.6 8.0 0.00 0.41 0.05 96 1010.2
20260507084913 15 82 1.6 4.8 0.00 0.41 0.05 96 1010.1
20260507084814 15 53 1.6 4.8 0.00 0.41 0.05 96 1010.2
20260507084702 15 201 1.6 4.8 0.00 0.41 0.05 96 1010.1
20260507084603 15 207 1.6 4.8 0.00 0.41 0.05 96 1010.2
20260507084503 15 207 1.6 4.8 0.00 0.41 0.05 96 1010.2
20260507084402 15 207 1.6 4.8 0.00 0.41 0.05 96 1010.2
20260507084303 15 207 1.6 4.8 0.00 0.41 0.05 96 1010.4
20260507084157 15 207 1.6 4.8 0.00 0.41 0.05 96 1010.2
20260507084057 15 207 1.6 4.8 0.00 0.41 0.05 96 1010.2
20260507083958 15 208 1.6 4.8 0.00 0.41 0.05 96 1010.1
20260507083858 15 213 1.6 4.8 0.00 0.41 0.05 96 1010.1
20260507083757 15 228 1.6 9.7 0.00 0.41 0.05 96 1010.0
20260507083658 15 234 1.6 9.7 0.00 0.41 0.05 96 1010.1
20260507083555 15 234 1.6 9.7 0.00 0.41 0.05 96 1010.2
20260507083455 15 236 1.6 9.7 0.00 0.41 0.05 96 1010.4
20260507083354 15 236 1.6 9.7 0.00 0.41 0.05 96 1010.6
20260507083252 15 219 1.6 9.7 0.00 0.41 0.05 96 1010.7
20260507083144 15 219 1.6 9.7 0.00 0.41 0.05 96 1010.8
20260507083045 15 227 1.6 9.7 0.00 0.41 0.05 96 1010.7
20260507082946 15 227 1.6 9.7 0.00 0.41 0.05 96 1010.9
20260507082844 15 281 1.6 6.4 0.00 0.41 0.05 96 1010.9
20260507082741 15 279 1.6 6.4 0.00 0.41 0.05 96 1010.9
20260507082639 15 279 1.6 6.4 0.00 0.41 0.05 96 1011.0
20260507082540 15 157 1.6 6.4 0.00 0.41 0.05 96 1011.0
20260507082437 15 142 1.6 6.4 0.00 0.41 0.05 96 1011.0
20260507082336 15 142 1.6 6.4 0.00 0.41 0.05 96 1011.0
20260507082235 15 142 1.6 6.4 0.00 0.41 0.05 96 1011.1
20260507082130 15 142 1.6 6.4 0.00 0.41 0.05 96 1011.1
20260507082028 15 143 1.6 6.4 0.00 0.41 0.05 96 1011.1
20260507081930 15 138 1.6 6.4 0.00 0.41 0.05 96 1011.1
20260507081829 15 310 1.6 6.4 0.00 0.41 0.05 95 1011.0
20260507081730 15 313 1.6 6.4 0.00 0.41 0.05 96 1011.0
20260507081623 15 278 1.6 6.4 0.00 0.41 0.05 96 1011.0
20260507081524 15 277 1.6 6.4 0.00 0.41 0.05 96 1010.9
20260507081424 15 277 3.2 11.3 0.00 0.41 0.05 96 1010.9
20260507081321 15 280 3.2 11.3 0.00 0.41 0.05 96 1010.9
20260507081219 15 277 3.2 11.3 0.00 0.41 0.05 96 1010.9
20260507081118 15 277 3.2 11.3 0.00 0.41 0.05 95 1010.8
20260507081017 15 288 3.2 11.3 0.00 0.41 0.05 95 1010.9
20260507080917 15 288 3.2 11.3 0.00 0.41 0.05 95 1010.9
20260507080815 15 286 3.2 11.3 0.00 0.41 0.05 96 1010.9
20260507080713 15 287 3.2 11.3 0.00 0.41 0.05 96 1010.9
20260507080610 15 288 3.2 11.3 0.00 0.41 0.05 95 1010.9
20260507080511 15 288 1.6 11.3 0.00 0.41 0.05 95 1010.9
20260507080410 15 322 1.6 6.4 0.00 0.41 0.05 95 1010.9
20260507080310 15 329 1.6 6.4 0.00 0.41 0.05 95 1010.8
20260507080208 15 99 1.6 4.8 0.00 0.41 0.05 95 1010.8
20260507075957 15 100 1.6 4.8 0.00 0.41 0.05 95 1010.7
20260507075857 15 101 1.6 4.8 0.00 0.41 0.05 95 1010.6
20260507075756 15 111 1.6 4.8 0.00 0.41 0.05 95 1010.6
20260507075552 15 96 1.6 4.8 0.00 0.41 0.05 95 1010.6
20260507075453 15 96 1.6 4.8 0.00 0.41 0.05 95 1010.6
20260507075354 15 96 1.6 4.8 0.00 0.41 0.05 95 1010.6
20260507075253 15 62 1.6 4.8 0.00 0.41 0.05 95 1010.6
20260507075152 15 61 1.6 4.8 0.00 0.41 0.05 95 1010.6
20260507075046 15 77 1.6 4.8 0.00 0.41 0.05 95 1010.5
20260507074945 15 77 1.6 4.8 0.00 0.41 0.05 95 1010.5
20260507074846 15 76 1.6 4.8 0.00 0.41 0.05 95 1010.5
20260507074745 15 76 1.6 6.4 0.00 0.41 0.05 95 1010.6
20260507074645 15 105 1.6 6.4 0.00 0.41 0.05 95 1010.5
20260507074538 15 105 1.6 6.4 0.00 0.41 0.05 95 1010.6
20260507074440 15 105 1.6 6.4 0.00 0.41 0.05 95 1010.6
20260507074338 15 105 1.6 6.4 0.00 0.41 0.05 95 1010.6
20260507074237 15 105 1.6 6.4 0.00 0.41 0.05 95 1010.7
20260507074135 15 355 1.6 6.4 0.00 0.41 0.05 95 1010.6
20260507074031 15 339 1.6 6.4 0.00 0.41 0.05 95 1010.7
20260507073932 15 337 1.6 6.4 0.00 0.41 0.05 96 1010.7
20260507073830 15 161 1.6 6.4 0.00 0.41 0.05 95 1010.7
20260507073731 15 154 1.6 6.4 0.00 0.41 0.05 95 1010.7
20260507073630 15 162 1.6 6.4 0.00 0.41 0.05 96 1010.7
20260507073526 15 163 1.6 6.4 0.00 0.41 0.05 96 1010.7
20260507073422 15 163 1.6 6.4 0.00 0.41 0.05 96 1010.6
20260507073324 15 163 1.6 6.4 0.00 0.41 0.05 96 1010.6
20260507073223 15 163 1.6 6.4 0.00 0.41 0.05 96 1010.6
20260507073123 15 166 1.6 6.4 0.00 0.41 0.05 95 1010.6
20260507073016 15 173 1.6 4.8 0.00 0.41 0.05 96 1010.6
20260507072918 15 222 0.0 4.8 0.00 0.41 0.05 96 1010.6
20260507072817 15 222 0.0 4.8 0.00 0.41 0.05 96 1010.7
20260507072716 15 246 0.0 4.8 0.00 0.41 0.05 96 1010.7
20260507072614 15 247 1.6 4.8 0.00 0.41 0.05 96 1010.6
20260507072509 15 246 1.6 4.8 0.00 0.41 0.05 96 1010.5
20260507072408 15 248 1.6 4.8 0.00 0.41 0.05 96 1010.7
20260507072308 15 296 1.6 9.7 0.00 0.41 0.05 96 1010.5
20260507072208 15 196 1.6 9.7 0.00 0.41 0.05 96 1010.5
20260507072107 15 167 3.2 9.7 0.00 0.41 0.05 96 1010.5
20260507072002 15 167 3.2 9.7 0.00 0.41 0.05 96 1010.4
20260507071901 15 167 3.2 9.7 0.00 0.41 0.05 96 1010.5
20260507071802 15 170 3.2 9.7 0.00 0.41 0.05 96 1010.5
20260507071701 15 173 3.2 9.7 0.00 0.41 0.05 96 1010.6
20260507071602 15 174 3.2 9.7 0.00 0.41 0.05 96 1010.6
20260507071454 15 174 3.2 12.9 0.00 0.41 0.05 96 1010.6
20260507071355 16 174 1.6 12.9 0.00 0.41 0.05 96 1010.8
20260507071254 15 191 1.6 12.9 0.00 0.41 0.05 96 1010.8
20260507071153 15 193 1.6 12.9 0.00 0.41 0.05 96 1010.9
20260507071051 15 282 1.6 12.9 0.00 0.41 0.05 96 1011.0
20260507070947 15 221 1.6 12.9 0.00 0.41 0.05 96 1011.1
20260507070845 15 221 1.6 12.9 0.00 0.41 0.05 96 1011.2
20260507070746 16 271 1.6 12.9 0.00 0.41 0.05 96 1011.2
20260507070644 16 272 1.6 12.9 0.00 0.41 0.05 96 1011.2
20260507070545 15 236 1.6 4.8 0.00 0.41 0.05 96 1011.3
20260507070442 15 244 1.6 4.8 0.00 0.41 0.05 96 1011.3
20260507070340 16 246 1.6 4.8 0.00 0.41 0.05 96 1011.2
20260507070241 15 302 1.6 4.8 0.00 0.41 0.05 96 1011.2
20260507070141 15 302 1.6 4.8 0.00 0.41 0.05 96 1011.1
20260507070041 16 302 1.6 6.4 0.00 0.41 0.05 96 1011.1
20260507065942 16 198 3.2 6.4 0.00 0.41 0.05 96 1011.1
20260507065841 16 196 3.2 6.4 0.00 0.41 0.05 96 1011.0
20260507065739 16 196 3.2 12.9 0.00 0.41 0.05 96 1011.1
20260507065639 16 287 3.2 12.9 0.00 0.41 0.05 96 1011.2
20260507065539 16 288 3.2 12.9 0.00 0.41 0.05 96 1011.1
20260507065438 16 180 3.2 12.9 0.00 0.41 0.05 96 1011.1
20260507065335 16 179 3.2 12.9 0.00 0.41 0.05 96 1011.1
20260507065234 16 182 3.2 12.9 0.00 0.41 0.05 96 1011.0
20260507065132 16 188 4.8 12.9 0.00 0.41 0.05 96 1011.0
20260507065032 16 177 3.2 12.9 0.00 0.41 0.05 96 1011.0
20260507064932 16 178 3.2 12.9 0.00 0.41 0.05 96 1011.1
20260507064833 16 150 3.2 12.9 0.00 0.41 0.05 96 1011.2
20260507064732 16 167 3.2 11.3 0.00 0.41 0.05 96 1011.3
20260507064634 16 167 3.2 11.3 0.00 0.41 0.05 96 1011.3
20260507064532 16 40 3.2 11.3 0.00 0.41 0.05 96 1011.3
20260507064432 16 179 3.2 11.3 0.00 0.41 0.05 96 1011.2
20260507064331 16 156 3.2 11.3 0.00 0.41 0.05 96 1011.3
20260507064228 16 172 1.6 11.3 0.00 0.41 0.05 96 1011.3
20260507064124 16 178 1.6 11.3 0.00 0.41 0.05 95 1011.2
20260507064025 16 165 1.6 9.7 0.00 0.41 0.05 95 1011.3
20260507063925 16 154 1.6 6.4 0.00 0.41 0.05 95 1011.4
20260507063825 16 142 1.6 6.4 0.00 0.41 0.05 95 1011.4
20260507063720 16 142 1.6 6.4 0.00 0.41 0.05 95 1011.3
20260507063619 16 142 1.6 6.4 0.00 0.41 0.05 95 1011.2
20260507063519 16 141 1.6 12.9 0.00 0.41 0.05 95 1011.3
20260507063419 16 125 1.6 12.9 0.00 0.41 0.05 95 1011.3
20260507063319 16 124 1.6 12.9 0.00 0.41 0.05 95 1011.2
20260507063217 16 126 1.6 12.9 0.00 0.41 0.05 95 1011.3
20260507063116 16 126 1.6 12.9 0.00 0.41 0.05 95 1011.3
20260507063016 16 192 3.2 12.9 0.00 0.41 0.05 95 1011.3
20260507062914 16 192 3.2 12.9 0.00 0.41 0.05 95 1011.3
20260507062816 16 192 3.2 12.9 0.00 0.41 0.05 95 1011.3
20260507062715 16 169 3.2 12.9 0.00 0.41 0.05 95 1011.3
20260507062614 16 170 4.8 12.9 0.00 0.41 0.05 95 1011.3
20260507062515 16 184 3.2 11.3 0.00 0.41 0.05 95 1011.3
20260507062414 16 177 3.2 11.3 0.00 0.41 0.05 95 1011.3
20260507062312 16 157 3.2 11.3 0.00 0.41 0.05 95 1011.3
20260507062211 16 153 3.2 11.3 0.00 0.41 0.05 95 1011.3
20260507062110 16 183 4.8 11.3 0.00 0.41 0.05 95 1011.4
20260507062011 16 190 4.8 11.3 0.03 0.41 0.05 95 1011.2
20260507061912 16 128 4.8 11.3 0.03 0.41 0.05 95 1011.3
20260507061810 16 184 4.8 11.3 0.03 0.41 0.05 95 1011.4
20260507061709 16 175 4.8 11.3 0.03 0.41 0.05 95 1011.4
20260507061607 16 192 4.8 11.3 0.03 0.41 0.05 96 1011.4
20260507061507 16 190 4.8 11.3 0.03 0.41 0.05 95 1011.4
20260507061408 16 182 3.2 11.3 0.03 0.41 0.05 95 1011.5
20260507061306 16 275 3.2 11.3 0.03 0.41 0.05 95 1011.4
20260507061206 16 199 3.2 14.5 0.03 0.41 0.05 96 1011.4
20260507061105 16 187 4.8 14.5 0.03 0.41 0.05 95 1011.3
20260507060959 16 188 4.8 14.5 0.03 0.41 0.05 95 1011.3
20260507060858 16 220 4.8 17.7 0.03 0.41 0.05 95 1011.3
20260507060800 16 163 6.4 19.3 0.03 0.41 0.05 95 1011.3
20260507060658 16 194 6.4 19.3 0.03 0.41 0.05 96 1011.3
20260507060559 16 238 6.4 19.3 0.03 0.41 0.05 96 1011.3
20260507060459 16 184 8.0 19.3 0.03 0.41 0.05 95 1011.2